Observation data for Sterling City on 05/25/2020      Previous  Date  Next       Current Mesonet Observations  Soil Data  Daily Summary Page  Observations in Plain Language
KSC1 250500Z 09009KT 18/15 A2983 RMK A01 T01780152  RH  085%=      5-min Rain = 0
KSC1 250501Z 09011KT 18/15 A2983 RMK A01 T01780153  RH  085%=      5-min Rain = 0
KSC1 250502Z 09009KT 18/15 A2983 RMK A01 T01780153  RH  085%=      5-min Rain = 0
KSC1 250503Z 10009KT 18/15 A2983 RMK A01 T01780154  RH  086%=      5-min Rain = 0
KSC1 250504Z 10009KT 18/16 A2983 RMK A01 T01770155  RH  087%=      5-min Rain = 0
KSC1 250505Z 10010KT 18/16 A2983 RMK A01 T01760156  RH  088%=      5-min Rain = 0
KSC1 250506Z 09010KT 18/16 A2983 RMK A01 T01760156  RH  088%=      5-min Rain = 0
KSC1 250507Z 10010KT 18/16 A2983 RMK A01 T01760156  RH  088%=      5-min Rain = 0
KSC1 250508Z 10008KT 18/16 A2983 RMK A01 T01750157  RH  089%=      5-min Rain = 0
KSC1 250509Z 10008KT 18/16 A2983 RMK A01 T01750158  RH  090%=      5-min Rain = 0
KSC1 250510Z 10007KT 17/16 A2983 RMK A01 T01740158  RH  090%=      5-min Rain = 0
KSC1 250511Z 09006KT 17/16 A2983 RMK A01 T01740159  RH  091%=      5-min Rain = 0
KSC1 250512Z 11006KT 17/16 A2983 RMK A01 T01730159  RH  091%=      5-min Rain = 0
KSC1 250513Z 11005KT 17/16 A2983 RMK A01 T01730160  RH  092%=      5-min Rain = 0
KSC1 250514Z 10009KT 17/16 A2983 RMK A01 T01730160  RH  092%=      5-min Rain = 0
KSC1 250515Z 10009KT 17/16 A2983 RMK A01 T01730159  RH  092%=      5-min Rain = 0
KSC1 250516Z 11009KT 17/16 A2983 RMK A01 T01730159  RH  092%=      5-min Rain = 0
KSC1 250517Z 12007KT 17/16 A2983 RMK A01 T01730159  RH  092%=      5-min Rain = 0
KSC1 250518Z 11008KT 17/16 A2983 RMK A01 T01730160  RH  092%=      5-min Rain = 0
KSC1 250519Z 12006KT 17/16 A2983 RMK A01 T01730159  RH  092%=      5-min Rain = 0
KSC1 250520Z 12008G13KT 17/16 A2983 RMK A01 T01730159  RH  092%=      5-min Rain = 0
KSC1 250521Z 11006KT 17/16 A2983 RMK A01 T01730160  RH  092%=      5-min Rain = 0
KSC1 250522Z 10007KT 17/16 A2983 RMK A01 T01720160  RH  093%=      5-min Rain = 0
KSC1 250523Z 10009KT 17/16 A2983 RMK A01 T01720160  RH  093%=      5-min Rain = 0
KSC1 250524Z 10008KT 17/16 A2983 RMK A01 T01720160  RH  093%=      5-min Rain = 0
KSC1 250525Z 10008KT 17/16 A2983 RMK A01 T01720161  RH  093%=      5-min Rain = 0
KSC1 250526Z 09007KT 17/16 A2983 RMK A01 T01710161  RH  094%=      5-min Rain = 0
KSC1 250527Z 10009KT 17/16 A2983 RMK A01 T01710162  RH  094%=      5-min Rain = 0
KSC1 250528Z 09008G13KT 17/16 A2982 RMK A01 T01720163  RH  094%=      5-min Rain = 0
KSC1 250529Z 10009KT 17/16 A2983 RMK A01 T01710162  RH  095%=      5-min Rain = 0
KSC1 250530Z 10009KT 17/16 A2983 RMK A01 T01710163  RH  095%=      5-min Rain = 0
KSC1 250531Z 11010KT 17/16 A2983 RMK A01 T01710163  RH  095%=      5-min Rain = 0
KSC1 250532Z 11009KT 17/16 A2983 RMK A01 T01710163  RH  095%=      5-min Rain = 0
KSC1 250533Z 12008KT 17/16 A2983 RMK A01 T01710164  RH  096%=      5-min Rain = 0
KSC1 250534Z 12008KT 17/17 A2983 RMK A01 T01700165  RH  097%=      5-min Rain = 0
KSC1 250535Z 13007KT 17/17 A2983 RMK A01 T01700165  RH  097%=      5-min Rain = 0
KSC1 250536Z 13007KT 17/17 A2983 RMK A01 T01700165  RH  097%=      5-min Rain = 0
KSC1 250537Z 13007KT 17/17 A2983 RMK A01 T01700166  RH  097%=      5-min Rain = 0
KSC1 250538Z 13007KT 17/17 A2983 RMK A01 T01690166  RH  098%=      5-min Rain = 0
KSC1 250539Z 13006KT 17/17 A2983 RMK A01 T01700166  RH  098%=      5-min Rain = 0
KSC1 250540Z 12009KT 17/17 A2983 RMK A01 T01700167  RH  098%=      5-min Rain = 0
KSC1 250541Z 12007KT 17/17 A2983 RMK A01 T01700167  RH  098%=      5-min Rain = 0
KSC1 250542Z 11008KT 17/17 A2983 RMK A01 T01690167  RH  098%=      5-min Rain = 0
KSC1 250543Z 11010KT 17/17 A2983 RMK A01 T01700167  RH  098%=      5-min Rain = 0
KSC1 250544Z 11008KT 17/17 A2983 RMK A01 T01700167  RH  099%=      5-min Rain = 0
KSC1 250545Z 11010KT 17/17 A2982 RMK A01 T01690168  RH  099%=      5-min Rain = 0
KSC1 250546Z 11008G13KT 17/17 A2982 RMK A01 T01690168  RH  099%=      5-min Rain = 0
KSC1 250547Z 11010G15KT 17/17 A2982 RMK A01 T01690168  RH  099%=      5-min Rain = 0
KSC1 250548Z 11010KT 17/17 A2982 RMK A01 T01690168  RH  100%=      5-min Rain = 0
KSC1 250549Z 11009KT 17/17 A2982 RMK A01 T01690168  RH  100%=      5-min Rain = 0
KSC1 250550Z 12009KT 17/17 A2983 RMK A01 T01690169  RH  100%=      5-min Rain = 0
KSC1 250551Z 11011KT 17/17 A2983 RMK A01 T01690168  RH  100%=      5-min Rain = 0
KSC1 250552Z 11008KT 17/17 A2983 RMK A01 T01690168  RH  099%=      5-min Rain = 0
KSC1 250553Z 12008KT 17/17 A2983 RMK A01 T01690168  RH  100%=      5-min Rain = 0
KSC1 250554Z 12009KT 17/17 A2983 RMK A01 T01690168  RH  100%=      5-min Rain = 0
KSC1 250555Z 12008KT 17/17 A2983 RMK A01 T01690168  RH  100%=      5-min Rain = 0
KSC1 250556Z 14008KT 17/17 A2983 RMK A01 T01690169  RH  100%=      5-min Rain = 0
KSC1 250557Z 13007KT 17/17 A2983 RMK A01 T01690168  RH  100%=      5-min Rain = 0
KSC1 250558Z 13008KT 17/17 A2983 RMK A01 T01690168  RH  100%=      5-min Rain = 0
KSC1 250559Z 12008G13KT 17/17 A2983 RMK A01 T01690168  RH  099%=      5-min Rain = 0
KSC1 250600Z 12006KT 17/17 A2983 RMK A01 T01690168  RH  099%=      5-min Rain = 0
KSC1 250601Z 13004KT 17/17 A2983 RMK A01 T01700169  RH  100%=      5-min Rain = 0
KSC1 250602Z 12008KT 17/17 A2983 RMK A01 T01700170  RH  100%=      5-min Rain = 0
KSC1 250603Z 11006KT 17/17 A2983 RMK A01 T01690169  RH  100%=      5-min Rain = 0
KSC1 250604Z 12007KT 17/17 A2983 RMK A01 T01700169  RH  100%=      5-min Rain = 0
KSC1 250605Z 11006KT 17/17 A2983 RMK A01 T01690168  RH  099%=      5-min Rain = 0
KSC1 250606Z 10004KT 17/17 A2983 RMK A01 T01690169  RH  099%=      5-min Rain = 0
KSC1 250607Z 11007KT 17/17 A2983 RMK A01 T01700169  RH  100%=      5-min Rain = 0
KSC1 250608Z 10006KT 17/17 A2984 RMK A01 T01690169  RH  100%=      5-min Rain = 0
KSC1 250609Z 10006KT 17/17 A2984 RMK A01 T01690169  RH  100%=      5-min Rain = 0
KSC1 250610Z 11006KT 17/17 A2984 RMK A01 T01700170  RH  100%=      5-min Rain = 0
KSC1 250611Z 10005KT 17/17 A2984 RMK A01 T01690169  RH  100%=      5-min Rain = 0
KSC1 250612Z 10008KT 17/17 A2984 RMK A01 T01690169  RH  100%=      5-min Rain = 0
KSC1 250613Z 11008KT 17/17 A2984 RMK A01 T01690169  RH  100%=      5-min Rain = 0
KSC1 250614Z 11009KT 17/17 A2984 RMK A01 T01690169  RH  100%=      5-min Rain = 0
KSC1 250615Z 10007KT 17/17 A2984 RMK A01 T01690169  RH  100%=      5-min Rain = 0
KSC1 250616Z 10006KT 17/17 A2984 RMK A01 T01690169  RH  100%=      5-min Rain = 0
KSC1 250617Z 11004KT 17/17 A2984 RMK A01 T01690169  RH  100%=      5-min Rain = 0
KSC1 250618Z 11005KT 17/17 A2984 RMK A01 T01690169  RH  100%=      5-min Rain = 0
KSC1 250619Z 11007KT 17/17 A2984 RMK A01 T01680169  RH  100%=      5-min Rain = 0
KSC1 250620Z 12006KT 17/17 A2984 RMK A01 T01680169  RH  100%=      5-min Rain = 0
KSC1 250621Z 12006KT 17/17 A2984 RMK A01 T01690169  RH  100%=      5-min Rain = 0
KSC1 250622Z 12006KT 17/17 A2984 RMK A01 T01690169  RH  100%=      5-min Rain = 0
KSC1 250623Z 13005KT 17/17 A2984 RMK A01 T01690169  RH  100%=      5-min Rain = 0
KSC1 250624Z 13008KT 17/17 A2984 RMK A01 T01690169  RH  100%=      5-min Rain = 0
KSC1 250625Z 13005KT 17/17 A2984 RMK A01 T01690169  RH  100%=      5-min Rain = 0
KSC1 250626Z 14004KT 17/17 A2984 RMK A01 T01690169  RH  100%=      5-min Rain = 0
KSC1 250627Z 13005KT 17/17 A2984 RMK A01 T01680169  RH  100%=      5-min Rain = 0
KSC1 250628Z 12005KT 17/17 A2984 RMK A01 T01690169  RH  100%=      5-min Rain = 0
KSC1 250629Z 13005KT 17/17 A2985 RMK A01 T01680169  RH  100%=      5-min Rain = 0
KSC1 250630Z 11005KT 17/17 A2985 RMK A01 T01690169  RH  100%=      5-min Rain = 0
KSC1 250631Z 12004KT 17/17 A2985 RMK A01 T01680169  RH  100%=      5-min Rain = 0
KSC1 250632Z 12006KT 17/17 A2985 RMK A01 T01680168  RH  100%=      5-min Rain = 0
KSC1 250633Z 12006KT 17/17 A2985 RMK A01 T01680168  RH  100%=      5-min Rain = 0
KSC1 250634Z 13004KT 17/17 A2985 RMK A01 T01680168  RH  100%=      5-min Rain = 0
KSC1 250635Z 12006KT 17/17 A2985 RMK A01 T01680168  RH  100%=      5-min Rain = 0
KSC1 250636Z 12005KT 17/17 A2985 RMK A01 T01680168  RH  100%=      5-min Rain = 0
KSC1 250637Z 12006KT 17/17 A2985 RMK A01 T01680168  RH  100%=      5-min Rain = 0
KSC1 250638Z 11005KT 17/17 A2985 RMK A01 T01680168  RH  100%=      5-min Rain = 0
KSC1 250639Z 11006KT 17/17 A2985 RMK A01 T01680168  RH  100%=      5-min Rain = 0
KSC1 250640Z 10005KT 17/17 A2985 RMK A01 T01680168  RH  100%=      5-min Rain = 0
KSC1 250641Z 11007KT 17/17 A2985 RMK A01 T01680168  RH  100%=      5-min Rain = 0
KSC1 250642Z 11008KT 17/17 A2985 RMK A01 T01680168  RH  100%=      5-min Rain = 0
KSC1 250643Z 11006KT 17/17 A2985 RMK A01 T01680168  RH  100%=      5-min Rain = 0
KSC1 250644Z 10005KT 17/17 A2985 RMK A01 T01690169  RH  100%=      5-min Rain = 0
KSC1 250645Z 11007KT 17/17 A2984 RMK A01 T01690169  RH  100%=      5-min Rain = 0
KSC1 250646Z 10006KT 17/17 A2984 RMK A01 T01680169  RH  100%=      5-min Rain = 0
KSC1 250647Z 11006KT 17/17 A2984 RMK A01 T01690169  RH  100%=      5-min Rain = 0
KSC1 250648Z 11005KT 17/17 A2984 RMK A01 T01690169  RH  100%=      5-min Rain = 0
KSC1 250649Z 11005KT 17/17 A2984 RMK A01 T01680168  RH  100%=      5-min Rain = 0
KSC1 250650Z 11005KT 17/17 A2985 RMK A01 T01680168  RH  100%=      5-min Rain = 0
KSC1 250651Z 11006KT 17/17 A2985 RMK A01 T01680168  RH  100%=      5-min Rain = 0
KSC1 250652Z 10007KT 17/17 A2985 RMK A01 T01680168  RH  100%=      5-min Rain = 0
KSC1 250653Z 11007KT 17/17 A2985 RMK A01 T01680168  RH  100%=      5-min Rain = 0
KSC1 250654Z 10007KT 17/17 A2985 RMK A01 T01680168  RH  100%=      5-min Rain = 0
KSC1 250655Z 11006KT 17/17 A2985 RMK A01 T01680169  RH  100%=      5-min Rain = 0
KSC1 250656Z 11007KT 17/17 A2985 RMK A01 T01680168  RH  100%=      5-min Rain = 0
KSC1 250657Z 11006KT 17/17 A2984 RMK A01 T01680168  RH  100%=      5-min Rain = 0
KSC1 250658Z 10006KT 17/17 A2984 RMK A01 T01680168  RH  100%=      5-min Rain = 0
KSC1 250659Z 10007KT 17/17 A2984 RMK A01 T01680168  RH  100%=      5-min Rain = 0
KSC1 250700Z 11006KT 17/17 A2984 RMK A01 T01680168  RH  100%=      5-min Rain = 0
KSC1 250701Z 10005KT 17/17 A2984 RMK A01 T01680168  RH  100%=      5-min Rain = 0
KSC1 250702Z 11004KT 17/17 A2984 RMK A01 T01680168  RH  100%=      5-min Rain = 0
KSC1 250703Z 11004KT 17/17 A2984 RMK A01 T01680168  RH  100%=      5-min Rain = 0
KSC1 250704Z 11005KT 17/17 A2984 RMK A01 T01680168  RH  100%=      5-min Rain = 0
KSC1 250705Z 11007KT 17/17 A2984 RMK A01 T01680168  RH  100%=      5-min Rain = 0
KSC1 250706Z 11007KT 17/17 A2984 RMK A01 T01680168  RH  100%=      5-min Rain = 0
KSC1 250707Z 10006KT 17/17 A2984 RMK A01 T01680168  RH  100%=      5-min Rain = 0
KSC1 250708Z 11004KT 17/17 A2984 RMK A01 T01670168  RH  100%=      5-min Rain = 0
KSC1 250709Z 11005KT 17/17 A2984 RMK A01 T01670168  RH  100%=      5-min Rain = 0
KSC1 250710Z 11006KT 17/17 A2984 RMK A01 T01680168  RH  100%=      5-min Rain = 0
KSC1 250711Z 11005KT 17/17 A2984 RMK A01 T01680168  RH  100%=      5-min Rain = 0
KSC1 250712Z 11007KT 17/17 A2984 RMK A01 T01680168  RH  100%=      5-min Rain = 0
KSC1 250713Z 11006KT 17/17 A2984 RMK A01 T01680168  RH  100%=      5-min Rain = 0
KSC1 250714Z 10006KT 17/17 A2984 RMK A01 T01680168  RH  100%=      5-min Rain = 0
KSC1 250715Z 11006KT 17/17 A2984 RMK A01 T01680168  RH  100%=      5-min Rain = 0
KSC1 250716Z 10006KT 17/17 A2984 RMK A01 T01680168  RH  100%=      5-min Rain = 0
KSC1 250717Z 10005KT 17/17 A2984 RMK A01 T01680168  RH  100%=      5-min Rain = 0
KSC1 250718Z 11006KT 17/17 A2983 RMK A01 T01680168  RH  100%=      5-min Rain = 0
KSC1 250719Z 10007KT 17/17 A2983 RMK A01 T01670168  RH  100%=      5-min Rain = 0
KSC1 250720Z 11006KT 17/17 A2983 RMK A01 T01680168  RH  100%=      5-min Rain = 0
KSC1 250721Z 10006KT 17/17 A2983 RMK A01 T01680168  RH  100%=      5-min Rain = 0
KSC1 250722Z 11006KT 17/17 A2983 RMK A01 T01670168  RH  100%=      5-min Rain = 0
KSC1 250723Z 11007KT 17/17 A2983 RMK A01 T01680168  RH  100%=      5-min Rain = 0
KSC1 250724Z 11006KT 17/17 A2983 RMK A01 T01680168  RH  100%=      5-min Rain = 0
KSC1 250725Z 11008KT 17/17 A2984 RMK A01 T01670167  RH  100%=      5-min Rain = 0
KSC1 250726Z 11007KT 17/17 A2984 RMK A01 T01670167  RH  100%=      5-min Rain = 0
KSC1 250727Z 11007KT 17/17 A2984 RMK A01 T01670167  RH  100%=      5-min Rain = 0
KSC1 250728Z 11006KT 17/17 A2983 RMK A01 T01680167  RH  100%=      5-min Rain = 0
KSC1 250729Z 12006KT 17/17 A2983 RMK A01 T01680167  RH  099%=      5-min Rain = 0
KSC1 250730Z 11005KT 17/17 A2983 RMK A01 T01670166  RH  099%=      5-min Rain = 0
KSC1 250731Z 11006KT 17/17 A2983 RMK A01 T01680167  RH  099%=      5-min Rain = 0
KSC1 250732Z 11006KT 17/17 A2983 RMK A01 T01680167  RH  100%=      5-min Rain = 0
KSC1 250733Z 11007KT 17/17 A2983 RMK A01 T01670167  RH  100%=      5-min Rain = 0
KSC1 250734Z 11008KT 17/17 A2983 RMK A01 T01670167  RH  100%=      5-min Rain = 0
KSC1 250735Z 11006KT 17/17 A2983 RMK A01 T01670166  RH  099%=      5-min Rain = 0
KSC1 250736Z 11005KT 17/17 A2983 RMK A01 T01670166  RH  099%=      5-min Rain = 0
KSC1 250737Z 11006KT 17/17 A2983 RMK A01 T01670166  RH  099%=      5-min Rain = 0
KSC1 250738Z 11006KT 17/17 A2983 RMK A01 T01670167  RH  099%=      5-min Rain = 0
KSC1 250739Z 11006KT 17/17 A2983 RMK A01 T01670166  RH  099%=      5-min Rain = 0
KSC1 250740Z 12007KT 17/17 A2983 RMK A01 T01670166  RH  099%=      5-min Rain = 0
KSC1 250741Z 10009KT 17/17 A2983 RMK A01 T01670166  RH  099%=      5-min Rain = 0
KSC1 250742Z 11007KT 17/17 A2983 RMK A01 T01680165  RH  099%=      5-min Rain = 0
KSC1 250743Z 10005KT 17/17 A2983 RMK A01 T01670165  RH  098%=      5-min Rain = 0
KSC1 250744Z 10008KT 17/17 A2983 RMK A01 T01670165  RH  099%=      5-min Rain = 0
KSC1 250745Z 11006KT 17/17 A2984 RMK A01 T01670165  RH  098%=      5-min Rain = 0
KSC1 250746Z 10006KT 17/17 A2984 RMK A01 T01670165  RH  099%=      5-min Rain = 0
KSC1 250747Z 10007KT 17/17 A2984 RMK A01 T01670166  RH  099%=      5-min Rain = 0
KSC1 250748Z 10008KT 17/17 A2984 RMK A01 T01670165  RH  099%=      5-min Rain = 0
KSC1 250749Z 10007KT 17/17 A2984 RMK A01 T01670165  RH  099%=      5-min Rain = 0
KSC1 250750Z 10008KT 17/17 A2984 RMK A01 T01670165  RH  099%=      5-min Rain = 0
KSC1 250751Z 10006KT 17/16 A2984 RMK A01 T01670164  RH  098%=      5-min Rain = 0
KSC1 250752Z 10007KT 17/16 A2984 RMK A01 T01670164  RH  098%=      5-min Rain = 0
KSC1 250753Z 10008KT 17/16 A2984 RMK A01 T01670164  RH  098%=      5-min Rain = 0
KSC1 250754Z 10007KT 17/16 A2984 RMK A01 T01670164  RH  098%=      5-min Rain = 0
KSC1 250755Z 10009KT 17/16 A2984 RMK A01 T01670164  RH  098%=      5-min Rain = 0
KSC1 250756Z 10008KT 17/16 A2984 RMK A01 T01670163  RH  097%=      5-min Rain = 0
KSC1 250757Z 10007KT 17/16 A2984 RMK A01 T01680163  RH  097%=      5-min Rain = 0
KSC1 250758Z 10007KT 17/16 A2984 RMK A01 T01680163  RH  097%=      5-min Rain = 0
KSC1 250759Z 10007KT 17/16 A2983 RMK A01 T01680163  RH  097%=      5-min Rain = 0
KSC1 250800Z 10005KT 17/16 A2984 RMK A01 T01680164  RH  097%=      5-min Rain = 0
KSC1 250801Z 09006KT 17/16 A2983 RMK A01 T01680164  RH  098%=      5-min Rain = 0
KSC1 250802Z 10006KT 17/16 A2983 RMK A01 T01670164  RH  098%=      5-min Rain = 0
KSC1 250803Z 09007KT 17/16 A2983 RMK A01 T01670164  RH  098%=      5-min Rain = 0
KSC1 250804Z 10007KT 17/16 A2983 RMK A01 T01670164  RH  098%=      5-min Rain = 0
KSC1 250805Z 10006KT 17/16 A2983 RMK A01 T01670164  RH  098%=      5-min Rain = 0
KSC1 250806Z 10007KT 17/16 A2983 RMK A01 T01670164  RH  098%=      5-min Rain = 0
KSC1 250807Z 10006KT 17/16 A2983 RMK A01 T01660164  RH  098%=      5-min Rain = 0
KSC1 250808Z 10008KT 17/16 A2983 RMK A01 T01660164  RH  098%=      5-min Rain = 0
KSC1 250809Z 09006KT 17/16 A2983 RMK A01 T01660163  RH  098%=      5-min Rain = 0
KSC1 250810Z 10006KT 17/16 A2983 RMK A01 T01660163  RH  098%=      5-min Rain = 0
KSC1 250811Z 10008KT 17/16 A2983 RMK A01 T01660164  RH  098%=      5-min Rain = 0
KSC1 250812Z 10007KT 17/16 A2983 RMK A01 T01660164  RH  098%=      5-min Rain = 0
KSC1 250813Z 09006KT 17/16 A2983 RMK A01 T01660164  RH  098%=      5-min Rain = 0
KSC1 250814Z 10006KT 17/16 A2983 RMK A01 T01660164  RH  099%=      5-min Rain = 0
KSC1 250815Z 10005KT 17/16 A2983 RMK A01 T01660164  RH  099%=      5-min Rain = 0
KSC1 250816Z 09006KT 17/16 A2983 RMK A01 T01660164  RH  099%=      5-min Rain = 0
KSC1 250817Z 09007KT 17/16 A2983 RMK A01 T01650163  RH  099%=      5-min Rain = 0
KSC1 250818Z 09007KT 17/16 A2983 RMK A01 T01650163  RH  099%=      5-min Rain = 0
KSC1 250819Z 09007KT 17/16 A2983 RMK A01 T01650163  RH  099%=      5-min Rain = 0
KSC1 250820Z 09007KT 17/16 A2983 RMK A01 T01660163  RH  098%=      5-min Rain = 0
KSC1 250821Z 09007KT 17/16 A2983 RMK A01 T01650163  RH  098%=      5-min Rain = 0
KSC1 250822Z 10006KT 17/16 A2983 RMK A01 T01650163  RH  098%=      5-min Rain = 0
KSC1 250823Z 10008KT 17/16 A2983 RMK A01 T01650163  RH  098%=      5-min Rain = 0
KSC1 250824Z 09006KT 17/16 A2983 RMK A01 T01650163  RH  098%=      5-min Rain = 0
KSC1 250825Z 09007KT 17/16 A2983 RMK A01 T01650163  RH  098%=      5-min Rain = 0
KSC1 250826Z 10007KT 17/16 A2983 RMK A01 T01650163  RH  098%=      5-min Rain = 0
KSC1 250827Z 09006KT 17/16 A2983 RMK A01 T01650163  RH  098%=      5-min Rain = 0
KSC1 250828Z 10005KT 17/16 A2983 RMK A01 T01650163  RH  098%=      5-min Rain = 0
KSC1 250829Z 11007KT 17/16 A2983 RMK A01 T01650163  RH  098%=      5-min Rain = 0
KSC1 250830Z 11007KT 17/16 A2983 RMK A01 T01650163  RH  098%=      5-min Rain = 0
KSC1 250831Z 10006KT 17/16 A2983 RMK A01 T01650163  RH  098%=      5-min Rain = 0
KSC1 250832Z 10006KT 17/16 A2983 RMK A01 T01650163  RH  098%=      5-min Rain = 0
KSC1 250833Z 10008KT 17/16 A2983 RMK A01 T01650164  RH  099%=      5-min Rain = 0
KSC1 250834Z 10007KT 17/16 A2983 RMK A01 T01650164  RH  099%=      5-min Rain = 0
KSC1 250835Z 10007KT 17/16 A2983 RMK A01 T01650164  RH  099%=      5-min Rain = 0
KSC1 250836Z 11006KT 17/16 A2983 RMK A01 T01650164  RH  099%=      5-min Rain = 0
KSC1 250837Z 10007KT 17/16 A2983 RMK A01 T01650164  RH  099%=      5-min Rain = 0
KSC1 250838Z 11005KT 17/16 A2983 RMK A01 T01660164  RH  099%=      5-min Rain = 0
KSC1 250839Z 11005KT 17/16 A2983 RMK A01 T01650164  RH  099%=      5-min Rain = 0
KSC1 250840Z 11005KT 17/16 A2984 RMK A01 T01650164  RH  099%=      5-min Rain = 0
KSC1 250841Z 11006KT 17/16 A2984 RMK A01 T01650164  RH  099%=      5-min Rain = 0
KSC1 250842Z 11006KT 17/16 A2984 RMK A01 T01650164  RH  099%=      5-min Rain = 0
KSC1 250843Z 11007KT 17/16 A2984 RMK A01 T01650164  RH  099%=      5-min Rain = 0
KSC1 250844Z 11008KT 17/16 A2984 RMK A01 T01650164  RH  099%=      5-min Rain = 0
KSC1 250845Z 11007KT 17/16 A2984 RMK A01 T01650164  RH  099%=      5-min Rain = 0
KSC1 250846Z 11005KT 17/16 A2984 RMK A01 T01650164  RH  099%=      5-min Rain = 0
KSC1 250847Z 11009KT 17/16 A2984 RMK A01 T01650164  RH  099%=      5-min Rain = 0
KSC1 250848Z 11009KT 17/16 A2983 RMK A01 T01650163  RH  098%=      5-min Rain = 0
KSC1 250849Z 11007KT 17/16 A2983 RMK A01 T01660163  RH  098%=      5-min Rain = 0
KSC1 250850Z 11008KT 17/16 A2983 RMK A01 T01660163  RH  098%=      5-min Rain = 0
KSC1 250851Z 12008KT 17/16 A2983 RMK A01 T01660163  RH  099%=      5-min Rain = 0
KSC1 250852Z 11006KT 17/16 A2983 RMK A01 T01660164  RH  099%=      5-min Rain = 0
KSC1 250853Z 12007KT 17/16 A2983 RMK A01 T01650164  RH  099%=      5-min Rain = 0
KSC1 250854Z 12008KT 17/16 A2983 RMK A01 T01660164  RH  099%=      5-min Rain = 0
KSC1 250855Z 11006KT 17/16 A2982 RMK A01 T01650163  RH  099%=      5-min Rain = 0
KSC1 250856Z 11008KT 17/16 A2982 RMK A01 T01650163  RH  099%=      5-min Rain = 0
KSC1 250857Z 11006KT 17/16 A2982 RMK A01 T01650163  RH  099%=      5-min Rain = 0
KSC1 250858Z 10006KT 17/16 A2982 RMK A01 T01650163  RH  099%=      5-min Rain = 0
KSC1 250859Z 10009KT 17/16 A2982 RMK A01 T01650164  RH  099%=      5-min Rain = 0
KSC1 250900Z 11010KT 17/16 A2982 RMK A01 T01650163  RH  099%=      5-min Rain = 0
KSC1 250901Z 11007KT 17/16 A2982 RMK A01 T01660163  RH  098%=      5-min Rain = 0
KSC1 250902Z 11008KT 17/16 A2982 RMK A01 T01660163  RH  098%=      5-min Rain = 0
KSC1 250903Z 11006KT 17/16 A2982 RMK A01 T01660163  RH  098%=      5-min Rain = 0
KSC1 250904Z 10007KT 17/16 A2982 RMK A01 T01660163  RH  098%=      5-min Rain = 0
KSC1 250905Z 11006KT 17/16 A2982 RMK A01 T01660163  RH  098%=      5-min Rain = 0
KSC1 250906Z 11005KT 17/16 A2982 RMK A01 T01660164  RH  099%=      5-min Rain = 0
KSC1 250907Z 11006KT 17/16 A2982 RMK A01 T01650164  RH  099%=      5-min Rain = 0
KSC1 250908Z 11005KT 17/16 A2982 RMK A01 T01650164  RH  100%=      5-min Rain = 0
KSC1 250909Z 11006KT 16/16 A2982 RMK A01 T01640164  RH  100%=      5-min Rain = 0
KSC1 250910Z 11005KT 16/16 A2982 RMK A01 T01640164  RH  100%=      5-min Rain = 0
KSC1 250911Z 12007KT 16/16 A2982 RMK A01 T01630164  RH  100%=      5-min Rain = 0
KSC1 250912Z 12006KT 16/16 A2982 RMK A01 T01640164  RH  100%=      5-min Rain = 0
KSC1 250913Z 12004KT 16/16 A2981 RMK A01 T01630163  RH  100%=      5-min Rain = 0
KSC1 250914Z 12005KT 16/16 A2981 RMK A01 T01640164  RH  100%=      5-min Rain = 0
KSC1 250915Z 14004KT 16/16 A2981 RMK A01 T01640164  RH  100%=      5-min Rain = 0
KSC1 250916Z 14005KT 16/16 A2981 RMK A01 T01640164  RH  100%=      5-min Rain = 0
KSC1 250917Z 14005KT 16/16 A2981 RMK A01 T01630164  RH  100%=      5-min Rain = 0
KSC1 250918Z 13004KT 16/16 A2981 RMK A01 T01640164  RH  100%=      5-min Rain = 0
KSC1 250919Z 13005KT 16/16 A2981 RMK A01 T01630163  RH  100%=      5-min Rain = 0
KSC1 250920Z 14004KT 16/16 A2981 RMK A01 T01630163  RH  100%=      5-min Rain = 0
KSC1 250921Z 13005KT 16/16 A2981 RMK A01 T01630163  RH  100%=      5-min Rain = 0
KSC1 250922Z 13003KT 16/16 A2981 RMK A01 T01630163  RH  100%=      5-min Rain = 0
KSC1 250923Z 13004KT 16/16 A2981 RMK A01 T01630163  RH  100%=      5-min Rain = 0
KSC1 250924Z 13004KT 16/16 A2981 RMK A01 T01630163  RH  100%=      5-min Rain = 0
KSC1 250925Z 12003KT 16/16 A2981 RMK A01 T01620162  RH  100%=      5-min Rain = 0
KSC1 250926Z 13003KT 16/16 A2981 RMK A01 T01620162  RH  100%=      5-min Rain = 0
KSC1 250927Z 12004KT 16/16 A2981 RMK A01 T01620162  RH  100%=      5-min Rain = 0
KSC1 250928Z 12004KT 16/16 A2981 RMK A01 T01620162  RH  100%=      5-min Rain = 0
KSC1 250929Z 13004KT 16/16 A2981 RMK A01 T01620162  RH  100%=      5-min Rain = 0
KSC1 250930Z 12003KT 16/16 A2981 RMK A01 T01620162  RH  100%=      5-min Rain = 0
KSC1 250931Z 12004KT 16/16 A2981 RMK A01 T01610161  RH  100%=      5-min Rain = 0
KSC1 250932Z 12003KT 16/16 A2981 RMK A01 T01610161  RH  100%=      5-min Rain = 0
KSC1 250933Z 13004KT 16/16 A2981 RMK A01 T01610161  RH  100%=      5-min Rain = 0
KSC1 250934Z 12004KT 16/16 A2981 RMK A01 T01610161  RH  100%=      5-min Rain = 0
KSC1 250935Z 12005KT 16/16 A2981 RMK A01 T01610161  RH  100%=      5-min Rain = 0
KSC1 250936Z 12005KT 16/16 A2981 RMK A01 T01600160  RH  100%=      5-min Rain = 0
KSC1 250937Z 12005KT 16/16 A2981 RMK A01 T01600160  RH  100%=      5-min Rain = 0
KSC1 250938Z 12005KT 16/16 A2981 RMK A01 T01600160  RH  100%=      5-min Rain = 0
KSC1 250939Z 12004KT 16/16 A2981 RMK A01 T01600160  RH  100%=      5-min Rain = 0
KSC1 250940Z 12003KT 16/16 A2981 RMK A01 T01610161  RH  100%=      5-min Rain = 0
KSC1 250941Z 12004KT 16/16 A2981 RMK A01 T01600160  RH  100%=      5-min Rain = 0
KSC1 250942Z 13003KT 16/16 A2981 RMK A01 T01600160  RH  100%=      5-min Rain = 0
KSC1 250943Z 12003KT 16/16 A2981 RMK A01 T01600160  RH  100%=      5-min Rain = 0
KSC1 250944Z 12003KT 16/16 A2981 RMK A01 T01600160  RH  100%=      5-min Rain = 0
KSC1 250945Z 12003KT 16/16 A2981 RMK A01 T01600161  RH  100%=      5-min Rain = 0
KSC1 250946Z 12003KT 16/16 A2981 RMK A01 T01600160  RH  100%=      5-min Rain = 0
KSC1 250947Z 12003KT 16/16 A2981 RMK A01 T01600161  RH  100%=      5-min Rain = 0
KSC1 250948Z 12003KT 16/16 A2981 RMK A01 T01600160  RH  100%=      5-min Rain = 0
KSC1 250949Z 13003KT 16/16 A2981 RMK A01 T01600160  RH  100%=      5-min Rain = 0
KSC1 250950Z 13003KT 16/16 A2981 RMK A01 T01590159  RH  100%=      5-min Rain = 0
KSC1 250951Z 12003KT 16/16 A2981 RMK A01 T01600160  RH  100%=      5-min Rain = 0
KSC1 250952Z 12003KT 16/16 A2981 RMK A01 T01590160  RH  100%=      5-min Rain = 0
KSC1 250953Z 13004KT 16/16 A2981 RMK A01 T01590160  RH  100%=      5-min Rain = 0
KSC1 250954Z 12002KT 16/16 A2981 RMK A01 T01590159  RH  100%=      5-min Rain = 0
KSC1 250955Z 12003KT 16/16 A2981 RMK A01 T01590159  RH  100%=      5-min Rain = 0
KSC1 250956Z 12003KT 16/16 A2981 RMK A01 T01590159  RH  100%=      5-min Rain = 0
KSC1 250957Z 13003KT 16/16 A2982 RMK A01 T01590159  RH  100%=      5-min Rain = 0
KSC1 250958Z 12003KT 16/16 A2982 RMK A01 T01590159  RH  100%=      5-min Rain = 0
KSC1 250959Z 13003KT 16/16 A2982 RMK A01 T01580158  RH  100%=      5-min Rain = 0
KSC1 251000Z 13004KT 16/16 A2981 RMK A01 T01580158  RH  100%=      5-min Rain = 0
KSC1 251001Z 12004KT 16/16 A2981 RMK A01 T01580158  RH  100%=      5-min Rain = 0
KSC1 251002Z 13003KT 16/16 A2981 RMK A01 T01580158  RH  100%=      5-min Rain = 0
KSC1 251003Z 13003KT 16/16 A2981 RMK A01 T01580158  RH  100%=      5-min Rain = 0
KSC1 251004Z 13003KT 16/16 A2981 RMK A01 T01580158  RH  100%=      5-min Rain = 0
KSC1 251005Z 13003KT 16/16 A2981 RMK A01 T01580158  RH  100%=      5-min Rain = 0
KSC1 251006Z 13005KT 16/16 A2981 RMK A01 T01580158  RH  100%=      5-min Rain = 0
KSC1 251007Z 13004KT 16/16 A2981 RMK A01 T01580158  RH  100%=      5-min Rain = 0
KSC1 251008Z 13004KT 16/16 A2981 RMK A01 T01570157  RH  100%=      5-min Rain = 0
KSC1 251009Z 13004KT 16/16 A2981 RMK A01 T01570157  RH  100%=      5-min Rain = 0
KSC1 251010Z 12004KT 16/16 A2981 RMK A01 T01570157  RH  100%=      5-min Rain = 0
KSC1 251011Z 12003KT 16/16 A2981 RMK A01 T01570157  RH  100%=      5-min Rain = 0
KSC1 251012Z 13004KT 16/16 A2981 RMK A01 T01570157  RH  100%=      5-min Rain = 0
KSC1 251013Z 12004KT 16/16 A2981 RMK A01 T01570157  RH  100%=      5-min Rain = 0
KSC1 251014Z 13004KT 16/16 A2981 RMK A01 T01570157  RH  100%=      5-min Rain = 0
KSC1 251015Z 12004KT 16/16 A2981 RMK A01 T01570157  RH  100%=      5-min Rain = 0
KSC1 251016Z 13003KT 16/16 A2981 RMK A01 T01570157  RH  100%=      5-min Rain = 0
KSC1 251017Z 13003KT 16/16 A2981 RMK A01 T01570157  RH  100%=      5-min Rain = 0
KSC1 251018Z 13004KT 16/16 A2981 RMK A01 T01560156  RH  100%=      5-min Rain = 0
KSC1 251019Z 13004KT 16/16 A2981 RMK A01 T01560156  RH  100%=      5-min Rain = 0
KSC1 251020Z 13004KT 16/16 A2981 RMK A01 T01560156  RH  100%=      5-min Rain = 0
KSC1 251021Z 12004KT 16/16 A2981 RMK A01 T01560156  RH  100%=      5-min Rain = 0
KSC1 251022Z 12004KT 16/16 A2981 RMK A01 T01560156  RH  100%=      5-min Rain = 0
KSC1 251023Z 12004KT 16/16 A2981 RMK A01 T01560156  RH  100%=      5-min Rain = 0
KSC1 251024Z 12004KT 16/16 A2981 RMK A01 T01560156  RH  100%=      5-min Rain = 0
KSC1 251025Z 12004KT 16/16 A2981 RMK A01 T01560157  RH  100%=      5-min Rain = 0
KSC1 251026Z 12004KT 16/16 A2981 RMK A01 T01560156  RH  100%=      5-min Rain = 0
KSC1 251027Z 12004KT 16/16 A2981 RMK A01 T01560156  RH  100%=      5-min Rain = 0
KSC1 251028Z 13003KT 16/16 A2981 RMK A01 T01560156  RH  100%=      5-min Rain = 0
KSC1 251029Z 12005KT 16/16 A2981 RMK A01 T01560156  RH  100%=      5-min Rain = 0
KSC1 251030Z 11004KT 16/16 A2981 RMK A01 T01560156  RH  100%=      5-min Rain = 0
KSC1 251031Z 11005KT 16/16 A2981 RMK A01 T01560156  RH  100%=      5-min Rain = 0
KSC1 251032Z 11005KT 16/16 A2981 RMK A01 T01560156  RH  100%=      5-min Rain = 0
KSC1 251033Z 12005KT 16/16 A2981 RMK A01 T01560156  RH  100%=      5-min Rain = 0
KSC1 251034Z 11004KT 16/16 A2981 RMK A01 T01570157  RH  100%=      5-min Rain = 0
KSC1 251035Z 11006KT 16/16 A2981 RMK A01 T01570157  RH  100%=      5-min Rain = 0
KSC1 251036Z 11004KT 16/16 A2981 RMK A01 T01570157  RH  100%=      5-min Rain = 0
KSC1 251037Z 11003KT 16/16 A2981 RMK A01 T01570157  RH  100%=      5-min Rain = 0
KSC1 251038Z 12005KT 16/16 A2981 RMK A01 T01570157  RH  100%=      5-min Rain = 0
KSC1 251039Z 11005KT 16/16 A2981 RMK A01 T01570157  RH  100%=      5-min Rain = 0
KSC1 251040Z 12005KT 16/16 A2981 RMK A01 T01570157  RH  100%=      5-min Rain = 0
KSC1 251041Z 12005KT 16/16 A2981 RMK A01 T01570157  RH  100%=      5-min Rain = 0
KSC1 251042Z 12005KT 16/16 A2981 RMK A01 T01570157  RH  100%=      5-min Rain = 0
KSC1 251043Z 13004KT 16/16 A2981 RMK A01 T01580158  RH  100%=      5-min Rain = 0
KSC1 251044Z 13004KT 16/16 A2981 RMK A01 T01580158  RH  100%=      5-min Rain = 0.01
KSC1 251045Z 13003KT 16/16 A2981 RMK A01 T01580158  RH  100%=      5-min Rain = 0
KSC1 251046Z 13003KT 16/16 A2981 RMK A01 T01570158  RH  100%=      5-min Rain = 0
KSC1 251047Z 13003KT 16/16 A2981 RMK A01 T01570157  RH  100%=      5-min Rain = 0
KSC1 251048Z 13004KT 16/16 A2981 RMK A01 T01560157  RH  100%=      5-min Rain = 0
KSC1 251049Z 13003KT 16/16 A2981 RMK A01 T01570157  RH  100%=      5-min Rain = 0
KSC1 251050Z 15004KT 16/16 A2981 RMK A01 T01560156  RH  100%=      5-min Rain = 0
KSC1 251051Z 14004KT 16/16 A2981 RMK A01 T01560156  RH  100%=      5-min Rain = 0
KSC1 251052Z 14004KT 16/16 A2981 RMK A01 T01560156  RH  100%=      5-min Rain = 0
KSC1 251053Z 14004KT 16/16 A2981 RMK A01 T01560156  RH  100%=      5-min Rain = 0
KSC1 251054Z 15005KT 16/16 A2981 RMK A01 T01560156  RH  100%=      5-min Rain = 0
KSC1 251055Z 15005KT 16/16 A2981 RMK A01 T01560156  RH  100%=      5-min Rain = 0
KSC1 251056Z 13005KT 16/16 A2981 RMK A01 T01560156  RH  100%=      5-min Rain = 0
KSC1 251057Z 11004KT 16/16 A2981 RMK A01 T01560156  RH  100%=      5-min Rain = 0
KSC1 251058Z 11004KT 16/16 A2981 RMK A01 T01560156  RH  100%=      5-min Rain = 0
KSC1 251059Z 10004KT 16/16 A2981 RMK A01 T01560156  RH  100%=      5-min Rain = 0
KSC1 251100Z 11004KT 16/16 A2981 RMK A01 T01560156  RH  100%=      5-min Rain = 0
KSC1 251101Z 10004KT 16/16 A2982 RMK A01 T01560156  RH  100%=      5-min Rain = 0
KSC1 251102Z 08003KT 16/16 A2982 RMK A01 T01550155  RH  100%=      5-min Rain = 0
KSC1 251103Z 09003KT 16/16 A2982 RMK A01 T01550155  RH  100%=      5-min Rain = 0
KSC1 251104Z 09003KT 16/16 A2982 RMK A01 T01550155  RH  100%=      5-min Rain = 0
KSC1 251105Z 10002KT 16/16 A2982 RMK A01 T01550155  RH  100%=      5-min Rain = 0
KSC1 251106Z 12003KT 16/16 A2982 RMK A01 T01550155  RH  100%=      5-min Rain = 0
KSC1 251107Z 13003KT 16/16 A2982 RMK A01 T01550155  RH  100%=      5-min Rain = 0
KSC1 251108Z 13003KT 16/16 A2982 RMK A01 T01550155  RH  100%=      5-min Rain = 0
KSC1 251109Z 13003KT 16/16 A2982 RMK A01 T01550155  RH  100%=      5-min Rain = 0
KSC1 251110Z 13004KT 16/16 A2982 RMK A01 T01550155  RH  100%=      5-min Rain = 0
KSC1 251111Z 13003KT 16/16 A2982 RMK A01 T01550155  RH  100%=      5-min Rain = 0
KSC1 251112Z 12002KT 16/16 A2982 RMK A01 T01550155  RH  100%=      5-min Rain = 0
KSC1 251113Z 12003KT 15/15 A2982 RMK A01 T01540154  RH  100%=      5-min Rain = 0
KSC1 251114Z 12003KT 15/15 A2982 RMK A01 T01540154  RH  100%=      5-min Rain = 0
KSC1 251115Z 13002KT 15/15 A2982 RMK A01 T01540154  RH  100%=      5-min Rain = 0
KSC1 251116Z 13003KT 15/15 A2982 RMK A01 T01530154  RH  100%=      5-min Rain = 0
KSC1 251117Z 13002KT 15/15 A2982 RMK A01 T01530153  RH  100%=      5-min Rain = 0
KSC1 251118Z 13002KT 15/15 A2982 RMK A01 T01530153  RH  100%=      5-min Rain = 0
KSC1 251119Z 12003KT 15/15 A2982 RMK A01 T01530153  RH  100%=      5-min Rain = 0
KSC1 251120Z 13003KT 15/15 A2982 RMK A01 T01530153  RH  100%=      5-min Rain = 0
KSC1 251121Z 12003KT 15/15 A2982 RMK A01 T01530153  RH  100%=      5-min Rain = 0
KSC1 251122Z 11003KT 15/15 A2982 RMK A01 T01520153  RH  100%=      5-min Rain = 0
KSC1 251123Z 11003KT 15/15 A2982 RMK A01 T01520152  RH  100%=      5-min Rain = 0
KSC1 251124Z 12003KT 15/15 A2982 RMK A01 T01510151  RH  100%=      5-min Rain = 0
KSC1 251125Z 12003KT 15/15 A2982 RMK A01 T01510151  RH  100%=      5-min Rain = 0
KSC1 251126Z 12003KT 15/15 A2982 RMK A01 T01510151  RH  100%=      5-min Rain = 0
KSC1 251127Z 14003KT 15/15 A2982 RMK A01 T01510151  RH  100%=      5-min Rain = 0
KSC1 251128Z 14004KT 15/15 A2982 RMK A01 T01510151  RH  100%=      5-min Rain = 0
KSC1 251129Z 16002KT 15/15 A2982 RMK A01 T01510151  RH  100%=      5-min Rain = 0
KSC1 251130Z 16002KT 15/15 A2982 RMK A01 T01500150  RH  100%=      5-min Rain = 0
KSC1 251131Z 15002KT 15/15 A2982 RMK A01 T01500150  RH  100%=      5-min Rain = 0
KSC1 251132Z 15004KT 15/15 A2982 RMK A01 T01500150  RH  100%=      5-min Rain = 0
KSC1 251133Z 15004KT 15/15 A2982 RMK A01 T01500150  RH  100%=      5-min Rain = 0
KSC1 251134Z 15003KT 15/15 A2981 RMK A01 T01500150  RH  100%=      5-min Rain = 0
KSC1 251135Z 15004KT 15/15 A2982 RMK A01 T01500150  RH  100%=      5-min Rain = 0
KSC1 251136Z 15006KT 15/15 A2982 RMK A01 T01500150  RH  100%=      5-min Rain = 0
KSC1 251137Z 16006KT 15/15 A2982 RMK A01 T01510151  RH  100%=      5-min Rain = 0
KSC1 251138Z 16005KT 15/15 A2982 RMK A01 T01520153  RH  100%=      5-min Rain = 0
KSC1 251139Z 14004KT 15/15 A2982 RMK A01 T01530153  RH  100%=      5-min Rain = 0
KSC1 251140Z 14003KT 15/15 A2982 RMK A01 T01530153  RH  100%=      5-min Rain = 0
KSC1 251141Z 14003KT 15/15 A2982 RMK A01 T01530153  RH  100%=      5-min Rain = 0
KSC1 251142Z 15004KT 15/15 A2982 RMK A01 T01540154  RH  100%=      5-min Rain = 0
KSC1 251143Z 14004KT 15/15 A2982 RMK A01 T01540154  RH  100%=      5-min Rain = 0
KSC1 251144Z 14004KT 16/16 A2982 RMK A01 T01550155  RH  100%=      5-min Rain = 0
KSC1 251145Z 14003KT 16/16 A2982 RMK A01 T01550155  RH  100%=      5-min Rain = 0
KSC1 251146Z 13003KT 16/16 A2982 RMK A01 T01550155  RH  100%=      5-min Rain = 0
KSC1 251147Z 13004KT 16/16 A2982 RMK A01 T01550155  RH  100%=      5-min Rain = 0
KSC1 251148Z 14003KT 16/16 A2982 RMK A01 T01550155  RH  100%=      5-min Rain = 0
KSC1 251149Z 13003KT 16/16 A2982 RMK A01 T01550156  RH  100%=      5-min Rain = 0
KSC1 251150Z 13003KT 16/16 A2982 RMK A01 T01560156  RH  100%=      5-min Rain = 0
KSC1 251151Z 13004KT 16/16 A2982 RMK A01 T01560156  RH  100%=      5-min Rain = 0
KSC1 251152Z 15005KT 16/16 A2982 RMK A01 T01560157  RH  100%=      5-min Rain = 0
KSC1 251153Z 16005KT 16/16 A2982 RMK A01 T01560156  RH  100%=      5-min Rain = 0
KSC1 251154Z 15004KT 16/16 A2982 RMK A01 T01560157  RH  100%=      5-min Rain = 0
KSC1 251155Z 16004KT 16/16 A2982 RMK A01 T01570157  RH  100%=      5-min Rain = 0
KSC1 251156Z 16005KT 16/16 A2982 RMK A01 T01570157  RH  100%=      5-min Rain = 0
KSC1 251157Z 17004KT 16/16 A2982 RMK A01 T01570157  RH  100%=      5-min Rain = 0
KSC1 251158Z 17002KT 16/16 A2982 RMK A01 T01570157  RH  100%=      5-min Rain = 0
KSC1 251159Z 17004KT 16/16 A2982 RMK A01 T01570157  RH  100%=      5-min Rain = 0
KSC1 251200Z 16004KT 16/16 A2983 RMK A01 T01570157  RH  100%=      5-min Rain = 0
KSC1 251201Z 16004KT 16/16 A2983 RMK A01 T01570157  RH  100%=      5-min Rain = 0
KSC1 251202Z 17002KT 16/16 A2983 RMK A01 T01570158  RH  100%=      5-min Rain = 0
KSC1 251203Z 17002KT 16/16 A2983 RMK A01 T01580158  RH  100%=      5-min Rain = 0
KSC1 251204Z 17001KT 16/16 A2983 RMK A01 T01580158  RH  100%=      5-min Rain = 0
KSC1 251205Z 15001KT 16/16 A2983 RMK A01 T01580158  RH  100%=      5-min Rain = 0
KSC1 251206Z 15002KT 16/16 A2983 RMK A01 T01570157  RH  100%=      5-min Rain = 0
KSC1 251207Z 13002KT 16/16 A2983 RMK A01 T01570157  RH  100%=      5-min Rain = 0
KSC1 251208Z 12002KT 16/16 A2983 RMK A01 T01570157  RH  100%=      5-min Rain = 0
KSC1 251209Z 13002KT 16/16 A2983 RMK A01 T01570157  RH  100%=      5-min Rain = 0
KSC1 251210Z 14001KT 16/16 A2983 RMK A01 T01570157  RH  100%=      5-min Rain = 0
KSC1 251211Z 14001KT 16/16 A2983 RMK A01 T01570157  RH  100%=      5-min Rain = 0
KSC1 251212Z 13001KT 16/16 A2983 RMK A01 T01560156  RH  100%=      5-min Rain = 0
KSC1 251213Z 12002KT 16/16 A2983 RMK A01 T01560156  RH  100%=      5-min Rain = 0
KSC1 251214Z 11002KT 16/16 A2983 RMK A01 T01560156  RH  100%=      5-min Rain = 0
KSC1 251215Z 08002KT 16/16 A2983 RMK A01 T01550155  RH  100%=      5-min Rain = 0
KSC1 251216Z 07001KT 16/16 A2983 RMK A01 T01550156  RH  100%=      5-min Rain = 0
KSC1 251217Z 06001KT 16/16 A2983 RMK A01 T01550155  RH  100%=      5-min Rain = 0
KSC1 251218Z 05002KT 16/16 A2983 RMK A01 T01550155  RH  100%=      5-min Rain = 0
KSC1 251219Z 03002KT 15/16 A2983 RMK A01 T01540155  RH  100%=      5-min Rain = 0
KSC1 251220Z 03002KT 15/15 A2983 RMK A01 T01540154  RH  100%=      5-min Rain = 0
KSC1 251221Z 03002KT 15/15 A2983 RMK A01 T01540154  RH  100%=      5-min Rain = 0
KSC1 251222Z 03001KT 15/15 A2983 RMK A01 T01540154  RH  100%=      5-min Rain = 0
KSC1 251223Z 03001KT 15/15 A2983 RMK A01 T01540154  RH  100%=      5-min Rain = 0
KSC1 251224Z 03001KT 15/15 A2983 RMK A01 T01530153  RH  100%=      5-min Rain = 0
KSC1 251225Z 03001KT 15/15 A2983 RMK A01 T01530153  RH  100%=      5-min Rain = 0
KSC1 251226Z 03001KT 15/15 A2983 RMK A01 T01530153  RH  100%=      5-min Rain = 0
KSC1 251227Z 00000KT 15/15 A2983 RMK A01 T01530153  RH  100%=      5-min Rain = 0
KSC1 251228Z 03000KT 15/15 A2983 RMK A01 T01530153  RH  100%=      5-min Rain = 0
KSC1 251229Z 03000KT 15/15 A2983 RMK A01 T01510151  RH  100%=      5-min Rain = 0
KSC1 251230Z 00000KT 15/15 A2983 RMK A01 T01510151  RH  100%=      5-min Rain = 0
KSC1 251231Z 03000KT 15/15 A2983 RMK A01 T01510151  RH  100%=      5-min Rain = 0
KSC1 251232Z 03000KT 15/15 A2983 RMK A01 T01510151  RH  100%=      5-min Rain = 0
KSC1 251233Z 00000KT 15/15 A2983 RMK A01 T01500151  RH  100%=      5-min Rain = 0
KSC1 251234Z 00000KT 15/15 A2983 RMK A01 T01500150  RH  100%=      5-min Rain = 0
KSC1 251235Z 00000KT 15/15 A2983 RMK A01 T01500150  RH  100%=      5-min Rain = 0
KSC1 251236Z 17001KT 15/15 A2983 RMK A01 T01490150  RH  100%=      5-min Rain = 0
KSC1 251237Z 16001KT 15/15 A2983 RMK A01 T01490149  RH  100%=      5-min Rain = 0
KSC1 251238Z 14001KT 15/15 A2983 RMK A01 T01490149  RH  100%=      5-min Rain = 0
KSC1 251239Z 13000KT 15/15 A2983 RMK A01 T01490149  RH  100%=      5-min Rain = 0
KSC1 251240Z 12000KT 15/15 A2983 RMK A01 T01490150  RH  100%=      5-min Rain = 0
KSC1 251241Z 00000KT 15/15 A2983 RMK A01 T01490150  RH  100%=      5-min Rain = 0
KSC1 251242Z 00000KT 15/15 A2983 RMK A01 T01500150  RH  100%=      5-min Rain = 0
KSC1 251243Z 00000KT 15/15 A2983 RMK A01 T01510151  RH  100%=      5-min Rain = 0
KSC1 251244Z 00000KT 15/15 A2983 RMK A01 T01520152  RH  100%=      5-min Rain = 0
KSC1 251245Z 00000KT 15/15 A2983 RMK A01 T01530154  RH  100%=      5-min Rain = 0
KSC1 251246Z 00000KT 16/16 A2983 RMK A01 T01550155  RH  100%=      5-min Rain = 0
KSC1 251247Z 15000KT 16/16 A2983 RMK A01 T01560156  RH  100%=      5-min Rain = 0
KSC1 251248Z 15000KT 16/16 A2983 RMK A01 T01570157  RH  100%=      5-min Rain = 0
KSC1 251249Z 02000KT 16/16 A2983 RMK A01 T01580159  RH  100%=      5-min Rain = 0
KSC1 251250Z 00000KT 16/16 A2983 RMK A01 T01590159  RH  100%=      5-min Rain = 0
KSC1 251251Z 00000KT 16/16 A2984 RMK A01 T01600160  RH  100%=      5-min Rain = 0
KSC1 251252Z 17001KT 16/16 A2984 RMK A01 T01600160  RH  100%=      5-min Rain = 0
KSC1 251253Z 18001KT 16/16 A2984 RMK A01 T01610162  RH  100%=      5-min Rain = 0
KSC1 251254Z 16002KT 16/16 A2984 RMK A01 T01630163  RH  100%=      5-min Rain = 0
KSC1 251255Z 17001KT 16/16 A2984 RMK A01 T01640164  RH  100%=      5-min Rain = 0
KSC1 251256Z 14001KT 17/17 A2984 RMK A01 T01650165  RH  100%=      5-min Rain = 0
KSC1 251257Z 17001KT 17/17 A2984 RMK A01 T01670167  RH  100%=      5-min Rain = 0
KSC1 251258Z 15000KT 17/17 A2984 RMK A01 T01680165  RH  098%=      5-min Rain = 0
KSC1 251259Z 17001KT 17/17 A2984 RMK A01 T01680167  RH  099%=      5-min Rain = 0
KSC1 251300Z 23001KT 17/17 A2984 RMK A01 T01700167  RH  098%=      5-min Rain = 0
KSC1 251301Z 22001KT 17/17 A2984 RMK A01 T01710167  RH  097%=      5-min Rain = 0
KSC1 251302Z 24003KT 17/17 A2984 RMK A01 T01720165  RH  096%=      5-min Rain = 0
KSC1 251303Z 23003KT 17/17 A2984 RMK A01 T01730166  RH  096%=      5-min Rain = 0
KSC1 251304Z 21003KT 17/17 A2984 RMK A01 T01730165  RH  095%=      5-min Rain = 0
KSC1 251305Z 21002KT 17/17 A2984 RMK A01 T01730166  RH  095%=      5-min Rain = 0
KSC1 251306Z 19002KT 17/17 A2984 RMK A01 T01740168  RH  096%=      5-min Rain = 0
KSC1 251307Z 19003KT 17/16 A2984 RMK A01 T01740162  RH  093%=      5-min Rain = 0
KSC1 251308Z 18003KT 17/16 A2984 RMK A01 T01740163  RH  093%=      5-min Rain = 0
KSC1 251309Z 20003KT 17/16 A2984 RMK A01 T01730161  RH  092%=      5-min Rain = 0
KSC1 251310Z 23003KT 17/16 A2984 RMK A01 T01730162  RH  093%=      5-min Rain = 0
KSC1 251311Z 24003KT 17/16 A2984 RMK A01 T01730163  RH  094%=      5-min Rain = 0
KSC1 251312Z 21003KT 17/17 A2984 RMK A01 T01730165  RH  095%=      5-min Rain = 0
KSC1 251313Z 19005KT 17/16 A2984 RMK A01 T01740164  RH  094%=      5-min Rain = 0
KSC1 251314Z 21004KT 17/16 A2984 RMK A01 T01740161  RH  092%=      5-min Rain = 0
KSC1 251315Z 21004KT 17/16 A2984 RMK A01 T01740161  RH  092%=      5-min Rain = 0
KSC1 251316Z 19004KT 17/16 A2984 RMK A01 T01740161  RH  092%=      5-min Rain = 0
KSC1 251317Z 20004KT 17/16 A2984 RMK A01 T01740159  RH  091%=      5-min Rain = 0
KSC1 251318Z 23003KT 17/16 A2984 RMK A01 T01740161  RH  092%=      5-min Rain = 0
KSC1 251319Z 23002KT 18/16 A2985 RMK A01 T01750161  RH  092%=      5-min Rain = 0
KSC1 251320Z 17002KT 18/16 A2985 RMK A01 T01750161  RH  091%=      5-min Rain = 0
KSC1 251321Z 18002KT 18/16 A2985 RMK A01 T01760159  RH  090%=      5-min Rain = 0
KSC1 251322Z 17000KT 18/16 A2986 RMK A01 T01760157  RH  089%=      5-min Rain = 0
KSC1 251323Z 05000KT 18/16 A2986 RMK A01 T01760156  RH  088%=      5-min Rain = 0
KSC1 251324Z 04002KT 18/16 A2986 RMK A01 T01770157  RH  088%=      5-min Rain = 0
KSC1 251325Z 04004KT 18/16 A2986 RMK A01 T01770159  RH  089%=      5-min Rain = 0
KSC1 251326Z 04005KT 18/16 A2987 RMK A01 T01760159  RH  090%=      5-min Rain = 0
KSC1 251327Z 03005KT 18/16 A2987 RMK A01 T01750160  RH  091%=      5-min Rain = 0
KSC1 251328Z 03005KT 17/16 A2987 RMK A01 T01740160  RH  091%=      5-min Rain = 0
KSC1 251329Z 03006KT 17/16 A2987 RMK A01 T01740162  RH  093%=      5-min Rain = 0
KSC1 251330Z 04005KT 17/16 A2987 RMK A01 T01740164  RH  094%=      5-min Rain = 0
KSC1 251331Z 05004KT 17/16 A2987 RMK A01 T01740164  RH  094%=      5-min Rain = 0
KSC1 251332Z 04003KT 17/16 A2987 RMK A01 T01740163  RH  093%=      5-min Rain = 0
KSC1 251333Z 04004KT 17/16 A2987 RMK A01 T01740163  RH  093%=      5-min Rain = 0
KSC1 251334Z 03005KT 17/17 A2987 RMK A01 T01740166  RH  095%=      5-min Rain = 0
KSC1 251335Z 02005KT 17/16 A2987 RMK A01 T01740164  RH  094%=      5-min Rain = 0
KSC1 251336Z 02003KT 17/17 A2987 RMK A01 T01740169  RH  097%=      5-min Rain = 0
KSC1 251337Z 01005KT 17/17 A2987 RMK A01 T01740171  RH  098%=      5-min Rain = 0
KSC1 251338Z 02004KT 17/17 A2987 RMK A01 T01740170  RH  097%=      5-min Rain = 0
KSC1 251339Z 02006KT 17/17 A2988 RMK A01 T01740170  RH  097%=      5-min Rain = 0
KSC1 251340Z 01005KT 18/17 A2988 RMK A01 T01750167  RH  095%=      5-min Rain = 0
KSC1 251341Z 01006KT 18/17 A2987 RMK A01 T01750167  RH  095%=      5-min Rain = 0
KSC1 251342Z 02005KT 18/17 A2987 RMK A01 T01750168  RH  095%=      5-min Rain = 0
KSC1 251343Z 05005KT 18/17 A2987 RMK A01 T01760169  RH  096%=      5-min Rain = 0
KSC1 251344Z 04006KT 18/17 A2987 RMK A01 T01760165  RH  093%=      5-min Rain = 0
KSC1 251345Z 03005KT 18/16 A2987 RMK A01 T01760164  RH  093%=      5-min Rain = 0
KSC1 251346Z 02003KT 18/16 A2987 RMK A01 T01770163  RH  092%=      5-min Rain = 0
KSC1 251347Z 02004KT 18/16 A2987 RMK A01 T01780162  RH  090%=      5-min Rain = 0
KSC1 251348Z 05004KT 18/16 A2987 RMK A01 T01790163  RH  091%=      5-min Rain = 0
KSC1 251349Z 06005KT 18/17 A2987 RMK A01 T01800165  RH  091%=      5-min Rain = 0
KSC1 251350Z 06006KT 18/16 A2987 RMK A01 T01810160  RH  088%=      5-min Rain = 0
KSC1 251351Z 05005KT 18/16 A2987 RMK A01 T01800158  RH  087%=      5-min Rain = 0
KSC1 251352Z 05005KT 18/16 A2987 RMK A01 T01790161  RH  089%=      5-min Rain = 0
KSC1 251353Z 04005KT 18/16 A2988 RMK A01 T01790161  RH  089%=      5-min Rain = 0
KSC1 251354Z 04005KT 18/16 A2988 RMK A01 T01800160  RH  088%=      5-min Rain = 0
KSC1 251355Z 05005KT 18/16 A2988 RMK A01 T01800161  RH  089%=      5-min Rain = 0
KSC1 251356Z 06005KT 18/16 A2988 RMK A01 T01810163  RH  090%=      5-min Rain = 0
KSC1 251357Z 05006KT 18/17 A2988 RMK A01 T01810167  RH  092%=      5-min Rain = 0
KSC1 251358Z 03005KT 18/17 A2988 RMK A01 T01820168  RH  092%=      5-min Rain = 0
KSC1 251359Z 03006KT 18/17 A2989 RMK A01 T01810165  RH  090%=      5-min Rain = 0
KSC1 251400Z 04007KT 18/16 A2989 RMK A01 T01790164  RH  091%=      5-min Rain = 0
KSC1 251401Z 04005KT 18/17 A2989 RMK A01 T01780165  RH  092%=      5-min Rain = 0
KSC1 251402Z 05005KT 18/17 A2989 RMK A01 T01770166  RH  093%=      5-min Rain = 0
KSC1 251403Z 07006KT 18/16 A2989 RMK A01 T01770163  RH  091%=      5-min Rain = 0
KSC1 251404Z 05005KT 18/16 A2989 RMK A01 T01760159  RH  090%=      5-min Rain = 0
KSC1 251405Z 04004KT 18/16 A2989 RMK A01 T01760163  RH  092%=      5-min Rain = 0
KSC1 251406Z 05005KT 18/17 A2989 RMK A01 T01770165  RH  093%=      5-min Rain = 0
KSC1 251407Z 03005KT 18/16 A2989 RMK A01 T01770162  RH  091%=      5-min Rain = 0
KSC1 251408Z 03004KT 18/16 A2989 RMK A01 T01770162  RH  091%=      5-min Rain = 0
KSC1 251409Z 03005KT 18/16 A2989 RMK A01 T01780163  RH  091%=      5-min Rain = 0
KSC1 251410Z 05006KT 18/16 A2989 RMK A01 T01810162  RH  089%=      5-min Rain = 0
KSC1 251411Z 05006KT 18/16 A2989 RMK A01 T01810159  RH  087%=      5-min Rain = 0
KSC1 251412Z 05006KT 18/16 A2989 RMK A01 T01810159  RH  087%=      5-min Rain = 0
KSC1 251413Z 05005KT 18/16 A2989 RMK A01 T01810161  RH  088%=      5-min Rain = 0
KSC1 251414Z 05007KT 18/16 A2989 RMK A01 T01810161  RH  088%=      5-min Rain = 0
KSC1 251415Z 04007KT 18/16 A2989 RMK A01 T01810156  RH  086%=      5-min Rain = 0
KSC1 251416Z 04006KT 18/16 A2989 RMK A01 T01810157  RH  086%=      5-min Rain = 0
KSC1 251417Z 05007KT 18/16 A2989 RMK A01 T01830159  RH  086%=      5-min Rain = 0
KSC1 251418Z 05005KT 19/16 A2989 RMK A01 T01850159  RH  084%=      5-min Rain = 0
KSC1 251419Z 05004KT 19/16 A2989 RMK A01 T01860159  RH  084%=      5-min Rain = 0
KSC1 251420Z 05006KT 19/16 A2989 RMK A01 T01870158  RH  083%=      5-min Rain = 0
KSC1 251421Z 03005KT 19/16 A2989 RMK A01 T01870158  RH  083%=      5-min Rain = 0
KSC1 251422Z 02006KT 19/16 A2989 RMK A01 T01870157  RH  083%=      5-min Rain = 0
KSC1 251423Z 02005KT 19/15 A2989 RMK A01 T01860153  RH  082%=      5-min Rain = 0
KSC1 251424Z 04005KT 18/16 A2989 RMK A01 T01840156  RH  083%=      5-min Rain = 0
KSC1 251425Z 04005KT 18/15 A2989 RMK A01 T01840154  RH  083%=      5-min Rain = 0
KSC1 251426Z 05006KT 18/16 A2989 RMK A01 T01840156  RH  084%=      5-min Rain = 0
KSC1 251427Z 04005KT 19/16 A2989 RMK A01 T01850157  RH  084%=      5-min Rain = 0
KSC1 251428Z 04006KT 19/16 A2989 RMK A01 T01850158  RH  084%=      5-min Rain = 0
KSC1 251429Z 05007KT 19/16 A2989 RMK A01 T01860157  RH  083%=      5-min Rain = 0
KSC1 251430Z 05007KT 19/16 A2989 RMK A01 T01860156  RH  083%=      5-min Rain = 0
KSC1 251431Z 05007KT 19/16 A2989 RMK A01 T01850156  RH  083%=      5-min Rain = 0
KSC1 251432Z 07004KT 19/16 A2989 RMK A01 T01850159  RH  085%=      5-min Rain = 0
KSC1 251433Z 06007KT 19/16 A2989 RMK A01 T01850156  RH  083%=      5-min Rain = 0
KSC1 251434Z 05007KT 19/16 A2989 RMK A01 T01850158  RH  084%=      5-min Rain = 0
KSC1 251435Z 05008KT 19/16 A2989 RMK A01 T01850157  RH  083%=      5-min Rain = 0
KSC1 251436Z 04009KT 19/16 A2989 RMK A01 T01860158  RH  084%=      5-min Rain = 0
KSC1 251437Z 03010KT 19/16 A2989 RMK A01 T01860155  RH  082%=      5-min Rain = 0
KSC1 251438Z 03009KT 19/15 A2989 RMK A01 T01850154  RH  082%=      5-min Rain = 0
KSC1 251439Z 05007KT 18/16 A2989 RMK A01 T01840155  RH  083%=      5-min Rain = 0
KSC1 251440Z 05006KT 19/16 A2989 RMK A01 T01850158  RH  084%=      5-min Rain = 0
KSC1 251441Z 05005KT 19/16 A2989 RMK A01 T01860157  RH  083%=      5-min Rain = 0
KSC1 251442Z 03007KT 19/16 A2989 RMK A01 T01870156  RH  082%=      5-min Rain = 0
KSC1 251443Z 03007KT 19/15 A2989 RMK A01 T01870152  RH  080%=      5-min Rain = 0
KSC1 251444Z 03006KT 19/15 A2989 RMK A01 T01860152  RH  080%=      5-min Rain = 0
KSC1 251445Z 03005KT 19/16 A2989 RMK A01 T01860155  RH  082%=      5-min Rain = 0
KSC1 251446Z 03006KT 19/15 A2989 RMK A01 T01860154  RH  082%=      5-min Rain = 0
KSC1 251447Z 02005KT 19/16 A2989 RMK A01 T01860155  RH  082%=      5-min Rain = 0
KSC1 251448Z 02006KT 19/16 A2989 RMK A01 T01870156  RH  082%=      5-min Rain = 0
KSC1 251449Z 04007KT 19/16 A2989 RMK A01 T01880159  RH  083%=      5-min Rain = 0
KSC1 251450Z 05008KT 19/16 A2989 RMK A01 T01900156  RH  081%=      5-min Rain = 0
KSC1 251451Z 05006KT 19/16 A2989 RMK A01 T01910157  RH  080%=      5-min Rain = 0
KSC1 251452Z 04005KT 19/16 A2989 RMK A01 T01920158  RH  081%=      5-min Rain = 0
KSC1 251453Z 05007KT 19/16 A2989 RMK A01 T01930156  RH  079%=      5-min Rain = 0
KSC1 251454Z 05007KT 19/15 A2989 RMK A01 T01920153  RH  078%=      5-min Rain = 0
KSC1 251455Z 04008KT 19/15 A2989 RMK A01 T01910153  RH  078%=      5-min Rain = 0
KSC1 251456Z 03009KT 19/15 A2989 RMK A01 T01900153  RH  079%=      5-min Rain = 0
KSC1 251457Z 03008KT 19/15 A2989 RMK A01 T01900153  RH  079%=      5-min Rain = 0
KSC1 251458Z 04005KT 19/15 A2989 RMK A01 T01900153  RH  079%=      5-min Rain = 0
KSC1 251459Z 03005KT 19/15 A2989 RMK A01 T01900151  RH  078%=      5-min Rain = 0
KSC1 251500Z 01004KT 19/15 A2989 RMK A01 T01910154  RH  079%=      5-min Rain = 0
KSC1 251501Z 03007KT 19/16 A2989 RMK A01 T01940157  RH  079%=      5-min Rain = 0
KSC1 251502Z 04007KT 20/16 A2989 RMK A01 T01980157  RH  077%=      5-min Rain = 0
KSC1 251503Z 04007KT 20/16 A2989 RMK A01 T02010155  RH  075%=      5-min Rain = 0
KSC1 251504Z 05009KT 20/15 A2989 RMK A01 T02010150  RH  073%=      5-min Rain = 0
KSC1 251505Z 04007KT 20/15 A2989 RMK A01 T01990151  RH  074%=      5-min Rain = 0
KSC1 251506Z 04008KT 20/15 A2989 RMK A01 T01970153  RH  076%=      5-min Rain = 0
KSC1 251507Z 03010KT 20/15 A2989 RMK A01 T01980152  RH  075%=      5-min Rain = 0
KSC1 251508Z 04007G12KT 20/15 A2989 RMK A01 T01990154  RH  075%=      5-min Rain = 0
KSC1 251509Z 05007KT 20/16 A2989 RMK A01 T01990155  RH  076%=      5-min Rain = 0
KSC1 251510Z 04007KT 20/16 A2989 RMK A01 T02000155  RH  075%=      5-min Rain = 0
KSC1 251511Z 03007KT 20/16 A2989 RMK A01 T02010155  RH  075%=      5-min Rain = 0
KSC1 251512Z 03007KT 20/15 A2989 RMK A01 T02010152  RH  073%=      5-min Rain = 0
KSC1 251513Z 04008KT 20/15 A2989 RMK A01 T02010152  RH  073%=      5-min Rain = 0
KSC1 251514Z 04007KT 20/15 A2989 RMK A01 T02010154  RH  074%=      5-min Rain = 0
KSC1 251515Z 05008KT 20/15 A2989 RMK A01 T02010152  RH  073%=      5-min Rain = 0
KSC1 251516Z 04008KT 20/15 A2989 RMK A01 T01990149  RH  073%=      5-min Rain = 0
KSC1 251517Z 05010KT 20/15 A299 RMK A01 T01980150  RH  074%=      5-min Rain = 0
KSC1 251518Z 04005KT 20/15 A299 RMK A01 T01970152  RH  075%=      5-min Rain = 0
KSC1 251519Z 01007KT 20/15 A299 RMK A01 T01970152  RH  075%=      5-min Rain = 0
KSC1 251520Z 02006KT 20/15 A299 RMK A01 T01970152  RH  075%=      5-min Rain = 0
KSC1 251521Z 02008KT 20/15 A299 RMK A01 T01960150  RH  075%=      5-min Rain = 0
KSC1 251522Z 02006KT 20/15 A299 RMK A01 T01970152  RH  075%=      5-min Rain = 0
KSC1 251523Z 03007KT 20/16 A299 RMK A01 T01980155  RH  076%=      5-min Rain = 0
KSC1 251524Z 04006KT 20/15 A299 RMK A01 T02000152  RH  073%=      5-min Rain = 0
KSC1 251525Z 03008KT 20/15 A299 RMK A01 T02010148  RH  072%=      5-min Rain = 0
KSC1 251526Z 03005KT 20/15 A299 RMK A01 T02010149  RH  072%=      5-min Rain = 0
KSC1 251527Z 04005KT 20/15 A299 RMK A01 T02010148  RH  072%=      5-min Rain = 0
KSC1 251528Z 03008KT 20/15 A299 RMK A01 T02010148  RH  071%=      5-min Rain = 0
KSC1 251529Z 05006KT 20/15 A299 RMK A01 T02010147  RH  071%=      5-min Rain = 0
KSC1 251530Z 04008KT 20/15 A299 RMK A01 T02000148  RH  072%=      5-min Rain = 0
KSC1 251531Z 06008KT 20/15 A299 RMK A01 T02000146  RH  071%=      5-min Rain = 0
KSC1 251532Z 05009KT 20/15 A299 RMK A01 T02000146  RH  071%=      5-min Rain = 0
KSC1 251533Z 05008KT 20/15 A299 RMK A01 T01990145  RH  071%=      5-min Rain = 0
KSC1 251534Z 05007KT 20/14 A299 RMK A01 T01990144  RH  071%=      5-min Rain = 0
KSC1 251535Z 06007KT 20/14 A299 RMK A01 T01990144  RH  071%=      5-min Rain = 0
KSC1 251536Z 05008KT 20/15 A299 RMK A01 T01990147  RH  072%=      5-min Rain = 0
KSC1 251537Z 05005KT 20/15 A299 RMK A01 T01980150  RH  074%=      5-min Rain = 0
KSC1 251538Z 04007KT 20/15 A299 RMK A01 T01990151  RH  074%=      5-min Rain = 0
KSC1 251539Z 04008KT 20/15 A299 RMK A01 T02000151  RH  073%=      5-min Rain = 0
KSC1 251540Z 04011KT 20/15 A299 RMK A01 T02000150  RH  073%=      5-min Rain = 0
KSC1 251541Z 03009G14KT 20/15 A299 RMK A01 T01990147  RH  072%=      5-min Rain = 0
KSC1 251542Z 03008KT 20/15 A299 RMK A01 T01980147  RH  072%=      5-min Rain = 0
KSC1 251543Z 05007KT 20/15 A299 RMK A01 T01970147  RH  073%=      5-min Rain = 0
KSC1 251544Z 05007KT 20/15 A2991 RMK A01 T01970148  RH  073%=      5-min Rain = 0
KSC1 251545Z 07006KT 20/15 A299 RMK A01 T01970148  RH  073%=      5-min Rain = 0
KSC1 251546Z 06006KT 20/15 A2991 RMK A01 T01970147  RH  073%=      5-min Rain = 0
KSC1 251547Z 05008KT 20/15 A299 RMK A01 T01970148  RH  073%=      5-min Rain = 0
KSC1 251548Z 05008KT 20/15 A2991 RMK A01 T01970146  RH  072%=      5-min Rain = 0
KSC1 251549Z 06008KT 20/15 A2991 RMK A01 T01970145  RH  072%=      5-min Rain = 0
KSC1 251550Z 05007KT 20/15 A2991 RMK A01 T01970146  RH  072%=      5-min Rain = 0
KSC1 251551Z 06007KT 20/15 A2991 RMK A01 T01980147  RH  072%=      5-min Rain = 0
KSC1 251552Z 06008KT 20/15 A2991 RMK A01 T01980146  RH  072%=      5-min Rain = 0
KSC1 251553Z 05007KT 20/15 A299 RMK A01 T01990147  RH  072%=      5-min Rain = 0
KSC1 251554Z 05008KT 20/15 A299 RMK A01 T01980146  RH  072%=      5-min Rain = 0
KSC1 251555Z 05007KT 20/15 A299 RMK A01 T01990148  RH  072%=      5-min Rain = 0
KSC1 251556Z 05009KT 20/15 A299 RMK A01 T02000147  RH  071%=      5-min Rain = 0
KSC1 251557Z 03009KT 20/15 A299 RMK A01 T02010149  RH  072%=      5-min Rain = 0
KSC1 251558Z 04007KT 20/15 A299 RMK A01 T02020147  RH  070%=      5-min Rain = 0
KSC1 251559Z 05009KT 20/15 A299 RMK A01 T02030146  RH  070%=      5-min Rain = 0
KSC1 251600Z 05008KT 20/15 A299 RMK A01 T02030147  RH  070%=      5-min Rain = 0
KSC1 251601Z 05007KT 20/15 A299 RMK A01 T02040151  RH  072%=      5-min Rain = 0
KSC1 251602Z 05009KT 21/15 A299 RMK A01 T02060147  RH  069%=      5-min Rain = 0
KSC1 251603Z 06009KT 21/15 A299 RMK A01 T02060148  RH  070%=      5-min Rain = 0
KSC1 251604Z 06008KT 21/15 A299 RMK A01 T02060148  RH  069%=      5-min Rain = 0
KSC1 251605Z 07007KT 21/15 A299 RMK A01 T02060148  RH  069%=      5-min Rain = 0
KSC1 251606Z 07008KT 21/15 A299 RMK A01 T02080147  RH  068%=      5-min Rain = 0
KSC1 251607Z 04011KT 21/15 A299 RMK A01 T02080147  RH  068%=      5-min Rain = 0
KSC1 251608Z 04009KT 21/15 A299 RMK A01 T02080148  RH  068%=      5-min Rain = 0
KSC1 251609Z 04010KT 21/15 A299 RMK A01 T02090148  RH  068%=      5-min Rain = 0
KSC1 251610Z 03011KT 21/15 A299 RMK A01 T02100146  RH  067%=      5-min Rain = 0
KSC1 251611Z 04010KT 21/15 A299 RMK A01 T02100147  RH  067%=      5-min Rain = 0
KSC1 251612Z 04010KT 21/15 A299 RMK A01 T02120149  RH  067%=      5-min Rain = 0
KSC1 251613Z 05009KT 21/15 A299 RMK A01 T02140148  RH  066%=      5-min Rain = 0
KSC1 251614Z 04009KT 21/15 A299 RMK A01 T02140150  RH  067%=      5-min Rain = 0
KSC1 251615Z 04008KT 22/15 A299 RMK A01 T02150149  RH  066%=      5-min Rain = 0
KSC1 251616Z 04010KT 21/15 A299 RMK A01 T02140150  RH  067%=      5-min Rain = 0
KSC1 251617Z 05011KT 21/15 A299 RMK A01 T02120148  RH  067%=      5-min Rain = 0
KSC1 251618Z 05009KT 21/15 A299 RMK A01 T02110149  RH  067%=      5-min Rain = 0
KSC1 251619Z 03007KT 21/15 A299 RMK A01 T02100148  RH  067%=      5-min Rain = 0
KSC1 251620Z 04007KT 21/15 A299 RMK A01 T02100148  RH  068%=      5-min Rain = 0
KSC1 251621Z 04008KT 21/15 A299 RMK A01 T02100149  RH  068%=      5-min Rain = 0
KSC1 251622Z 05010KT 21/15 A299 RMK A01 T02100148  RH  067%=      5-min Rain = 0
KSC1 251623Z 03007KT 21/15 A299 RMK A01 T02110150  RH  068%=      5-min Rain = 0
KSC1 251624Z 04006KT 21/15 A299 RMK A01 T02140153  RH  068%=      5-min Rain = 0
KSC1 251625Z 03008KT 22/15 A299 RMK A01 T02170152  RH  066%=      5-min Rain = 0
KSC1 251626Z 03008KT 22/15 A299 RMK A01 T02170149  RH  065%=      5-min Rain = 0
KSC1 251627Z 04006KT 22/15 A299 RMK A01 T02150148  RH  066%=      5-min Rain = 0
KSC1 251628Z 04008KT 21/15 A299 RMK A01 T02130149  RH  067%=      5-min Rain = 0
KSC1 251629Z 05006KT 21/15 A299 RMK A01 T02110149  RH  067%=      5-min Rain = 0
KSC1 251630Z 06009KT 21/15 A299 RMK A01 T02110148  RH  067%=      5-min Rain = 0
KSC1 251631Z 07008KT 21/15 A299 RMK A01 T02100145  RH  066%=      5-min Rain = 0
KSC1 251632Z 04009KT 21/15 A299 RMK A01 T02100145  RH  066%=      5-min Rain = 0
KSC1 251633Z 06008KT 21/14 A299 RMK A01 T02100141  RH  064%=      5-min Rain = 0
KSC1 251634Z 07008KT 21/14 A299 RMK A01 T02090143  RH  066%=      5-min Rain = 0
KSC1 251635Z 06008KT 21/14 A299 RMK A01 T02100144  RH  066%=      5-min Rain = 0
KSC1 251636Z 06008KT 21/15 A299 RMK A01 T02120147  RH  066%=      5-min Rain = 0
KSC1 251637Z 06005KT 21/15 A299 RMK A01 T02130147  RH  066%=      5-min Rain = 0
KSC1 251638Z 05004KT 22/15 A299 RMK A01 T02160149  RH  066%=      5-min Rain = 0
KSC1 251639Z 05009KT 22/15 A299 RMK A01 T02180148  RH  065%=      5-min Rain = 0
KSC1 251640Z 06009KT 22/14 A299 RMK A01 T02180143  RH  062%=      5-min Rain = 0
KSC1 251641Z 05009KT 22/14 A299 RMK A01 T02160142  RH  063%=      5-min Rain = 0
KSC1 251642Z 06009KT 22/14 A299 RMK A01 T02160143  RH  063%=      5-min Rain = 0
KSC1 251643Z 07008KT 22/14 A299 RMK A01 T02150144  RH  064%=      5-min Rain = 0
KSC1 251644Z 04008KT 22/15 A299 RMK A01 T02150145  RH  064%=      5-min Rain = 0
KSC1 251645Z 05008KT 22/14 A299 RMK A01 T02150144  RH  064%=      5-min Rain = 0
KSC1 251646Z 04008KT 22/14 A299 RMK A01 T02150144  RH  064%=      5-min Rain = 0
KSC1 251647Z 06009KT 21/14 A299 RMK A01 T02140142  RH  063%=      5-min Rain = 0
KSC1 251648Z 09008KT 21/14 A299 RMK A01 T02130143  RH  064%=      5-min Rain = 0
KSC1 251649Z 07008KT 21/14 A299 RMK A01 T02130142  RH  064%=      5-min Rain = 0
KSC1 251650Z 07007KT 21/14 A299 RMK A01 T02130142  RH  064%=      5-min Rain = 0
KSC1 251651Z 06006KT 21/14 A299 RMK A01 T02130144  RH  065%=      5-min Rain = 0
KSC1 251652Z 04006KT 21/14 A299 RMK A01 T02130144  RH  064%=      5-min Rain = 0
KSC1 251653Z 05006KT 21/14 A299 RMK A01 T02140144  RH  064%=      5-min Rain = 0
KSC1 251654Z 05008KT 22/14 A299 RMK A01 T02150142  RH  063%=      5-min Rain = 0
KSC1 251655Z 03009KT 21/14 A299 RMK A01 T02140141  RH  063%=      5-min Rain = 0
KSC1 251656Z 05006KT 21/14 A299 RMK A01 T02130143  RH  064%=      5-min Rain = 0
KSC1 251657Z 06006KT 21/14 A299 RMK A01 T02140144  RH  065%=      5-min Rain = 0
KSC1 251658Z 06009KT 22/14 A299 RMK A01 T02150144  RH  064%=      5-min Rain = 0
KSC1 251659Z 06009KT 22/14 A299 RMK A01 T02150141  RH  063%=      5-min Rain = 0
KSC1 251700Z 06008KT 21/14 A299 RMK A01 T02140141  RH  063%=      5-min Rain = 0
KSC1 251701Z 06007KT 21/14 A299 RMK A01 T02130140  RH  063%=      5-min Rain = 0
KSC1 251702Z 06009KT 21/14 A299 RMK A01 T02130139  RH  063%=      5-min Rain = 0
KSC1 251703Z 05008KT 21/14 A299 RMK A01 T02130139  RH  063%=      5-min Rain = 0
KSC1 251704Z 06008KT 21/14 A299 RMK A01 T02120139  RH  063%=      5-min Rain = 0
KSC1 251705Z 07010KT 21/14 A299 RMK A01 T02130138  RH  062%=      5-min Rain = 0
KSC1 251706Z 07008KT 21/14 A299 RMK A01 T02130138  RH  062%=      5-min Rain = 0
KSC1 251707Z 08008KT 21/14 A299 RMK A01 T02140141  RH  063%=      5-min Rain = 0
KSC1 251708Z 07008KT 22/14 A299 RMK A01 T02150139  RH  062%=      5-min Rain = 0
KSC1 251709Z 06008KT 22/14 A299 RMK A01 T02160139  RH  062%=      5-min Rain = 0
KSC1 251710Z 06010KT 22/14 A299 RMK A01 T02170138  RH  061%=      5-min Rain = 0
KSC1 251711Z 07008KT 22/14 A299 RMK A01 T02170138  RH  061%=      5-min Rain = 0
KSC1 251712Z 07009KT 22/14 A299 RMK A01 T02180138  RH  060%=      5-min Rain = 0
KSC1 251713Z 08008KT 22/14 A299 RMK A01 T02180139  RH  061%=      5-min Rain = 0
KSC1 251714Z 07008KT 22/14 A299 RMK A01 T02190138  RH  060%=      5-min Rain = 0
KSC1 251715Z 07007KT 22/14 A299 RMK A01 T02190140  RH  060%=      5-min Rain = 0
KSC1 251716Z 07005KT 22/14 A2989 RMK A01 T02200139  RH  060%=      5-min Rain = 0
KSC1 251717Z 07007KT 22/14 A2989 RMK A01 T02200140  RH  060%=      5-min Rain = 0
KSC1 251718Z 07007KT 22/14 A2989 RMK A01 T02210138  RH  059%=      5-min Rain = 0
KSC1 251719Z 08007KT 22/14 A2989 RMK A01 T02210139  RH  060%=      5-min Rain = 0
KSC1 251720Z 07006KT 22/14 A2989 RMK A01 T02220139  RH  059%=      5-min Rain = 0
KSC1 251721Z 06008KT 22/14 A2989 RMK A01 T02230141  RH  060%=      5-min Rain = 0
KSC1 251722Z 07009KT 22/14 A2989 RMK A01 T02240139  RH  059%=      5-min Rain = 0
KSC1 251723Z 07010KT 23/14 A2989 RMK A01 T02250138  RH  058%=      5-min Rain = 0
KSC1 251724Z 08009KT 22/14 A2989 RMK A01 T02240136  RH  057%=      5-min Rain = 0
KSC1 251725Z 06010KT 22/14 A2989 RMK A01 T02220137  RH  058%=      5-min Rain = 0
KSC1 251726Z 05010KT 22/14 A2989 RMK A01 T02230139  RH  059%=      5-min Rain = 0
KSC1 251727Z 05011KT 22/14 A2989 RMK A01 T02240137  RH  058%=      5-min Rain = 0
KSC1 251728Z 06010KT 22/14 A2989 RMK A01 T02240136  RH  057%=      5-min Rain = 0
KSC1 251729Z 06011KT 22/14 A2989 RMK A01 T02240136  RH  058%=      5-min Rain = 0
KSC1 251730Z 07009KT 23/14 A2989 RMK A01 T02250136  RH  057%=      5-min Rain = 0
KSC1 251731Z 05009KT 23/14 A2989 RMK A01 T02260138  RH  058%=      5-min Rain = 0
KSC1 251732Z 07010KT 23/14 A2989 RMK A01 T02290138  RH  056%=      5-min Rain = 0
KSC1 251733Z 07008KT 23/14 A2989 RMK A01 T02310139  RH  056%=      5-min Rain = 0
KSC1 251734Z 07009KT 23/14 A2989 RMK A01 T02340140  RH  055%=      5-min Rain = 0
KSC1 251735Z 06011KT 24/14 A2989 RMK A01 T02360138  RH  054%=      5-min Rain = 0
KSC1 251736Z 06008KT 24/14 A2989 RMK A01 T02360138  RH  054%=      5-min Rain = 0
KSC1 251737Z 05010KT 24/14 A2989 RMK A01 T02360139  RH  054%=      5-min Rain = 0
KSC1 251738Z 04009KT 24/14 A2989 RMK A01 T02350137  RH  054%=      5-min Rain = 0
KSC1 251739Z 04007G12KT 23/14 A2989 RMK A01 T02340138  RH  055%=      5-min Rain = 0
KSC1 251740Z 08006G11KT 23/14 A2989 RMK A01 T02340139  RH  055%=      5-min Rain = 0
KSC1 251741Z 06009KT 23/14 A2989 RMK A01 T02340138  RH  055%=      5-min Rain = 0
KSC1 251742Z 06009KT 24/14 A2989 RMK A01 T02350137  RH  054%=      5-min Rain = 0
KSC1 251743Z 05009KT 23/14 A2989 RMK A01 T02340136  RH  054%=      5-min Rain = 0
KSC1 251744Z 04008KT 23/13 A2989 RMK A01 T02320134  RH  054%=      5-min Rain = 0
KSC1 251745Z 07008KT 23/13 A2989 RMK A01 T02310134  RH  055%=      5-min Rain = 0
KSC1 251746Z 05006KT 23/14 A2989 RMK A01 T02300136  RH  055%=      5-min Rain = 0
KSC1 251747Z 06008KT 23/13 A2989 RMK A01 T02300134  RH  054%=      5-min Rain = 0
KSC1 251748Z 09007G12KT 23/13 A2989 RMK A01 T02300134  RH  055%=      5-min Rain = 0
KSC1 251749Z 08010KT 23/14 A2989 RMK A01 T02290135  RH  055%=      5-min Rain = 0
KSC1 251750Z 10008KT 23/13 A2989 RMK A01 T02290134  RH  055%=      5-min Rain = 0
KSC1 251751Z 09007KT 23/14 A2989 RMK A01 T02290136  RH  056%=      5-min Rain = 0
KSC1 251752Z 08010KT 23/13 A2989 RMK A01 T02290133  RH  055%=      5-min Rain = 0
KSC1 251753Z 06009KT 23/13 A2989 RMK A01 T02280132  RH  055%=      5-min Rain = 0
KSC1 251754Z 06009KT 23/13 A2989 RMK A01 T02270131  RH  055%=      5-min Rain = 0
KSC1 251755Z 06008KT 23/13 A2989 RMK A01 T02270132  RH  055%=      5-min Rain = 0
KSC1 251756Z 05010KT 23/13 A2989 RMK A01 T02260131  RH  055%=      5-min Rain = 0
KSC1 251757Z 06007KT 23/13 A2989 RMK A01 T02260132  RH  055%=      5-min Rain = 0
KSC1 251758Z 07006KT 23/13 A2989 RMK A01 T02260132  RH  055%=      5-min Rain = 0
KSC1 251759Z 08006KT 23/13 A2989 RMK A01 T02260134  RH  056%=      5-min Rain = 0
KSC1 251800Z 08009KT 23/13 A2989 RMK A01 T02270132  RH  055%=      5-min Rain = 0
KSC1 251801Z 07007KT 23/13 A2989 RMK A01 T02270133  RH  055%=      5-min Rain = 0
KSC1 251802Z 06007KT 23/14 A2989 RMK A01 T02270135  RH  056%=      5-min Rain = 0
KSC1 251803Z 06009KT 23/13 A2989 RMK A01 T02280133  RH  055%=      5-min Rain = 0
KSC1 251804Z 05010KT 23/13 A2989 RMK A01 T02280131  RH  054%=      5-min Rain = 0
KSC1 251805Z 06009KT 23/13 A2989 RMK A01 T02280132  RH  054%=      5-min Rain = 0
KSC1 251806Z 07007KT 23/13 A2989 RMK A01 T02280133  RH  055%=      5-min Rain = 0
KSC1 251807Z 09006KT 23/14 A2989 RMK A01 T02300135  RH  055%=      5-min Rain = 0
KSC1 251808Z 08008G13KT 23/14 A2989 RMK A01 T02320136  RH  055%=      5-min Rain = 0
KSC1 251809Z 09008KT 23/13 A2989 RMK A01 T02330133  RH  053%=      5-min Rain = 0
KSC1 251810Z 09010KT 23/13 A2989 RMK A01 T02340133  RH  053%=      5-min Rain = 0
KSC1 251811Z 08010KT 23/13 A2989 RMK A01 T02330132  RH  053%=      5-min Rain = 0
KSC1 251812Z 09007KT 23/13 A2989 RMK A01 T02320133  RH  054%=      5-min Rain = 0
KSC1 251813Z 08008KT 23/13 A2989 RMK A01 T02320134  RH  054%=      5-min Rain = 0
KSC1 251814Z 08008KT 23/13 A2989 RMK A01 T02320132  RH  053%=      5-min Rain = 0
KSC1 251815Z 08011KT 23/13 A2989 RMK A01 T02320132  RH  053%=      5-min Rain = 0
KSC1 251816Z 08010KT 23/13 A2989 RMK A01 T02310132  RH  053%=      5-min Rain = 0
KSC1 251817Z 08010KT 23/13 A2989 RMK A01 T02310132  RH  053%=      5-min Rain = 0
KSC1 251818Z 06010KT 23/13 A2989 RMK A01 T02310131  RH  053%=      5-min Rain = 0
KSC1 251819Z 07007KT 23/13 A2989 RMK A01 T02300132  RH  054%=      5-min Rain = 0
KSC1 251820Z 09008KT 23/13 A2989 RMK A01 T02300131  RH  053%=      5-min Rain = 0
KSC1 251821Z 09007KT 23/13 A2989 RMK A01 T02300132  RH  054%=      5-min Rain = 0
KSC1 251822Z 08006KT 23/13 A2989 RMK A01 T02310131  RH  053%=      5-min Rain = 0
KSC1 251823Z 10008KT 23/13 A2989 RMK A01 T02320131  RH  053%=      5-min Rain = 0
KSC1 251824Z 09009KT 23/13 A2989 RMK A01 T02320132  RH  053%=      5-min Rain = 0
KSC1 251825Z 09008KT 23/13 A2989 RMK A01 T02320130  RH  053%=      5-min Rain = 0
KSC1 251826Z 07007KT 23/13 A2989 RMK A01 T02320131  RH  053%=      5-min Rain = 0
KSC1 251827Z 07006KT 23/13 A2989 RMK A01 T02320132  RH  053%=      5-min Rain = 0
KSC1 251828Z 08006KT 23/13 A2989 RMK A01 T02320132  RH  053%=      5-min Rain = 0
KSC1 251829Z 05007KT 23/13 A2989 RMK A01 T02330134  RH  054%=      5-min Rain = 0
KSC1 251830Z 05006KT 23/13 A2989 RMK A01 T02340133  RH  053%=      5-min Rain = 0
KSC1 251831Z 05008KT 23/13 A2989 RMK A01 T02330134  RH  054%=      5-min Rain = 0
KSC1 251832Z 07006KT 23/13 A2989 RMK A01 T02330133  RH  053%=      5-min Rain = 0
KSC1 251833Z 06005KT 23/13 A2989 RMK A01 T02320134  RH  054%=      5-min Rain = 0
KSC1 251834Z 06005KT 23/13 A2989 RMK A01 T02330132  RH  053%=      5-min Rain = 0
KSC1 251835Z 05005KT 23/13 A2989 RMK A01 T02330133  RH  054%=      5-min Rain = 0
KSC1 251836Z 04006KT 23/14 A2989 RMK A01 T02320135  RH  054%=      5-min Rain = 0
KSC1 251837Z 05008KT 23/13 A2989 RMK A01 T02330134  RH  054%=      5-min Rain = 0
KSC1 251838Z 05006KT 23/14 A2989 RMK A01 T02330136  RH  054%=      5-min Rain = 0
KSC1 251839Z 05007KT 23/13 A2989 RMK A01 T02330134  RH  054%=      5-min Rain = 0
KSC1 251840Z 05007KT 23/13 A2989 RMK A01 T02320134  RH  054%=      5-min Rain = 0
KSC1 251841Z 07005KT 23/13 A2989 RMK A01 T02310134  RH  054%=      5-min Rain = 0
KSC1 251842Z 09006KT 23/14 A2989 RMK A01 T02310136  RH  055%=      5-min Rain = 0
KSC1 251843Z 07006KT 23/14 A2989 RMK A01 T02310135  RH  055%=      5-min Rain = 0
KSC1 251844Z 04005KT 23/14 A2989 RMK A01 T02310137  RH  055%=      5-min Rain = 0
KSC1 251845Z 04008KT 23/14 A2989 RMK A01 T02310137  RH  055%=      5-min Rain = 0
KSC1 251846Z 06007KT 23/14 A2989 RMK A01 T02310135  RH  055%=      5-min Rain = 0
KSC1 251847Z 05007KT 23/13 A2989 RMK A01 T02300133  RH  054%=      5-min Rain = 0
KSC1 251848Z 05006KT 23/13 A2989 RMK A01 T02290132  RH  054%=      5-min Rain = 0
KSC1 251849Z 05006KT 23/13 A2989 RMK A01 T02280133  RH  055%=      5-min Rain = 0
KSC1 251850Z 04006KT 23/13 A2989 RMK A01 T02280132  RH  055%=      5-min Rain = 0
KSC1 251851Z 06006KT 23/13 A2989 RMK A01 T02280134  RH  055%=      5-min Rain = 0
KSC1 251852Z 05006KT 23/13 A2989 RMK A01 T02280134  RH  055%=      5-min Rain = 0
KSC1 251853Z 05007KT 23/13 A2989 RMK A01 T02280133  RH  055%=      5-min Rain = 0
KSC1 251854Z 04005KT 23/13 A2989 RMK A01 T02280132  RH  055%=      5-min Rain = 0
KSC1 251855Z 03004KT 23/13 A2989 RMK A01 T02270134  RH  055%=      5-min Rain = 0
KSC1 251856Z 03006KT 23/13 A2989 RMK A01 T02270134  RH  056%=      5-min Rain = 0
KSC1 251857Z 03007KT 23/13 A2988 RMK A01 T02270133  RH  055%=      5-min Rain = 0
KSC1 251858Z 05005KT 23/13 A2989 RMK A01 T02270134  RH  056%=      5-min Rain = 0
KSC1 251859Z 04006KT 23/14 A2989 RMK A01 T02270135  RH  056%=      5-min Rain = 0
KSC1 251900Z 04005KT 23/14 A2989 RMK A01 T02260136  RH  056%=      5-min Rain = 0
KSC1 251901Z 05006KT 23/14 A2989 RMK A01 T02270137  RH  057%=      5-min Rain = 0
KSC1 251902Z 05007KT 23/14 A2989 RMK A01 T02270136  RH  057%=      5-min Rain = 0
KSC1 251903Z 04007KT 23/13 A2989 RMK A01 T02260134  RH  056%=      5-min Rain = 0
KSC1 251904Z 04006KT 23/14 A2989 RMK A01 T02260135  RH  056%=      5-min Rain = 0
KSC1 251905Z 03008KT 23/14 A2989 RMK A01 T02260138  RH  057%=      5-min Rain = 0
KSC1 251906Z 04007KT 23/14 A2989 RMK A01 T02260137  RH  057%=      5-min Rain = 0
KSC1 251907Z 05006KT 23/14 A2989 RMK A01 T02250138  RH  058%=      5-min Rain = 0
KSC1 251908Z 05007KT 23/14 A2989 RMK A01 T02250139  RH  058%=      5-min Rain = 0
KSC1 251909Z 04009KT 23/14 A2989 RMK A01 T02250137  RH  057%=      5-min Rain = 0
KSC1 251910Z 04008KT 22/14 A2989 RMK A01 T02240136  RH  057%=      5-min Rain = 0
KSC1 251911Z 05006KT 22/14 A2989 RMK A01 T02240137  RH  058%=      5-min Rain = 0
KSC1 251912Z 05006KT 22/14 A2989 RMK A01 T02240138  RH  058%=      5-min Rain = 0
KSC1 251913Z 05008KT 22/14 A2989 RMK A01 T02240136  RH  058%=      5-min Rain = 0
KSC1 251914Z 03006KT 22/14 A2989 RMK A01 T02240138  RH  058%=      5-min Rain = 0
KSC1 251915Z 04006KT 22/14 A2989 RMK A01 T02240138  RH  058%=      5-min Rain = 0
KSC1 251916Z 04008KT 22/14 A2989 RMK A01 T02240137  RH  058%=      5-min Rain = 0
KSC1 251917Z 04008KT 22/14 A2989 RMK A01 T02240137  RH  058%=      5-min Rain = 0
KSC1 251918Z 04006KT 22/14 A2989 RMK A01 T02240138  RH  058%=      5-min Rain = 0
KSC1 251919Z 06006KT 22/14 A2989 RMK A01 T02230139  RH  059%=      5-min Rain = 0
KSC1 251920Z 06007KT 22/14 A2989 RMK A01 T02230138  RH  058%=      5-min Rain = 0
KSC1 251921Z 06006KT 22/14 A2989 RMK A01 T02240138  RH  058%=      5-min Rain = 0
KSC1 251922Z 07008KT 22/14 A2989 RMK A01 T02240137  RH  058%=      5-min Rain = 0
KSC1 251923Z 07007KT 22/14 A2989 RMK A01 T02240137  RH  058%=      5-min Rain = 0
KSC1 251924Z 07005KT 22/14 A2989 RMK A01 T02240137  RH  058%=      5-min Rain = 0
KSC1 251925Z 07005KT 22/14 A2989 RMK A01 T02240137  RH  058%=      5-min Rain = 0
KSC1 251926Z 06006KT 22/14 A2989 RMK A01 T02240137  RH  058%=      5-min Rain = 0
KSC1 251927Z 05006KT 22/14 A2989 RMK A01 T02240138  RH  058%=      5-min Rain = 0
KSC1 251928Z 05009KT 22/14 A2989 RMK A01 T02240137  RH  058%=      5-min Rain = 0
KSC1 251929Z 05007KT 22/14 A2989 RMK A01 T02240136  RH  058%=      5-min Rain = 0
KSC1 251930Z 06009KT 22/14 A2989 RMK A01 T02240136  RH  058%=      5-min Rain = 0
KSC1 251931Z 05008KT 22/14 A2989 RMK A01 T02240137  RH  058%=      5-min Rain = 0
KSC1 251932Z 04007KT 22/14 A2989 RMK A01 T02240137  RH  058%=      5-min Rain = 0
KSC1 251933Z 04007KT 22/14 A2989 RMK A01 T02240136  RH  057%=      5-min Rain = 0
KSC1 251934Z 05007KT 22/14 A2989 RMK A01 T02240137  RH  058%=      5-min Rain = 0
KSC1 251935Z 04006KT 22/14 A2989 RMK A01 T02240137  RH  058%=      5-min Rain = 0
KSC1 251936Z 04006KT 23/14 A2989 RMK A01 T02250139  RH  058%=      5-min Rain = 0
KSC1 251937Z 04010KT 23/14 A2989 RMK A01 T02250137  RH  057%=      5-min Rain = 0
KSC1 251938Z 04008KT 23/14 A2989 RMK A01 T02250137  RH  057%=      5-min Rain = 0
KSC1 251939Z 03007KT 23/14 A2989 RMK A01 T02250136  RH  057%=      5-min Rain = 0
KSC1 251940Z 02008KT 22/14 A2989 RMK A01 T02240135  RH  057%=      5-min Rain = 0
KSC1 251941Z 02008KT 22/13 A2989 RMK A01 T02240134  RH  057%=      5-min Rain = 0
KSC1 251942Z 02007KT 22/13 A2989 RMK A01 T02230134  RH  057%=      5-min Rain = 0
KSC1 251943Z 03010KT 22/14 A2989 RMK A01 T02230136  RH  058%=      5-min Rain = 0
KSC1 251944Z 03009KT 22/14 A2989 RMK A01 T02230135  RH  057%=      5-min Rain = 0
KSC1 251945Z 03006KT 22/14 A2989 RMK A01 T02220135  RH  058%=      5-min Rain = 0
KSC1 251946Z 02005KT 22/14 A2989 RMK A01 T02220136  RH  058%=      5-min Rain = 0
KSC1 251947Z 04007KT 22/14 A2989 RMK A01 T02220136  RH  058%=      5-min Rain = 0
KSC1 251948Z 03006KT 22/14 A2989 RMK A01 T02220136  RH  058%=      5-min Rain = 0
KSC1 251949Z 03007KT 22/14 A2989 RMK A01 T02220136  RH  058%=      5-min Rain = 0
KSC1 251950Z 02008KT 22/14 A2989 RMK A01 T02220135  RH  058%=      5-min Rain = 0
KSC1 251951Z 03008KT 22/14 A2989 RMK A01 T02220135  RH  058%=      5-min Rain = 0
KSC1 251952Z 01008KT 22/14 A2989 RMK A01 T02210135  RH  058%=      5-min Rain = 0
KSC1 251953Z 01010KT 22/13 A2989 RMK A01 T02210133  RH  058%=      5-min Rain = 0
KSC1 251954Z 01008KT 22/13 A2989 RMK A01 T02200132  RH  057%=      5-min Rain = 0
KSC1 251955Z 01007KT 22/13 A2989 RMK A01 T02200133  RH  058%=      5-min Rain = 0
KSC1 251956Z 01008KT 22/13 A2989 RMK A01 T02200134  RH  058%=      5-min Rain = 0
KSC1 251957Z 02008KT 22/13 A2989 RMK A01 T02200134  RH  058%=      5-min Rain = 0
KSC1 251958Z 01009KT 22/13 A2989 RMK A01 T02210134  RH  058%=      5-min Rain = 0
KSC1 251959Z 02006KT 22/13 A2989 RMK A01 T02210134  RH  058%=      5-min Rain = 0
KSC1 252000Z 01007G12KT 22/14 A2989 RMK A01 T02210135  RH  058%=      5-min Rain = 0
KSC1 252001Z 02006KT 22/14 A2989 RMK A01 T02210135  RH  058%=      5-min Rain = 0
KSC1 252002Z 02008KT 22/13 A2989 RMK A01 T02220134  RH  058%=      5-min Rain = 0
KSC1 252003Z 03006KT 22/14 A2989 RMK A01 T02220135  RH  058%=      5-min Rain = 0
KSC1 252004Z 02006KT 22/13 A2989 RMK A01 T02220134  RH  058%=      5-min Rain = 0
KSC1 252005Z 02007KT 22/13 A2989 RMK A01 T02220134  RH  058%=      5-min Rain = 0
KSC1 252006Z 01006KT 22/13 A2989 RMK A01 T02210134  RH  058%=      5-min Rain = 0
KSC1 252007Z 01007KT 22/14 A2989 RMK A01 T02210135  RH  058%=      5-min Rain = 0
KSC1 252008Z 02007KT 22/14 A2989 RMK A01 T02220135  RH  058%=      5-min Rain = 0
KSC1 252009Z 03007KT 22/13 A2989 RMK A01 T02220134  RH  058%=      5-min Rain = 0
KSC1 252010Z 03007KT 22/13 A2989 RMK A01 T02220134  RH  057%=      5-min Rain = 0
KSC1 252011Z 02008KT 22/13 A2989 RMK A01 T02220133  RH  057%=      5-min Rain = 0
KSC1 252012Z 03007KT 22/13 A2989 RMK A01 T02210133  RH  057%=      5-min Rain = 0
KSC1 252013Z 03007KT 22/13 A2989 RMK A01 T02210133  RH  057%=      5-min Rain = 0
KSC1 252014Z 04006KT 22/13 A2989 RMK A01 T02210134  RH  057%=      5-min Rain = 0
KSC1 252015Z 04005KT 22/13 A2989 RMK A01 T02220133  RH  057%=      5-min Rain = 0
KSC1 252016Z 03007KT 22/13 A2989 RMK A01 T02220134  RH  057%=      5-min Rain = 0
KSC1 252017Z 03007KT 22/13 A2989 RMK A01 T02220133  RH  057%=      5-min Rain = 0
KSC1 252018Z 04007KT 22/13 A2989 RMK A01 T02220133  RH  057%=      5-min Rain = 0
KSC1 252019Z 05006KT 22/13 A2989 RMK A01 T02220133  RH  057%=      5-min Rain = 0
KSC1 252020Z 04006KT 22/13 A2989 RMK A01 T02220133  RH  057%=      5-min Rain = 0
KSC1 252021Z 04006KT 22/13 A2989 RMK A01 T02230134  RH  057%=      5-min Rain = 0
KSC1 252022Z 03007KT 22/13 A2989 RMK A01 T02230134  RH  057%=      5-min Rain = 0
KSC1 252023Z 05007KT 22/13 A2989 RMK A01 T02230133  RH  057%=      5-min Rain = 0
KSC1 252024Z 04007KT 22/13 A2989 RMK A01 T02230132  RH  056%=      5-min Rain = 0
KSC1 252025Z 04006KT 22/13 A2989 RMK A01 T02240133  RH  057%=      5-min Rain = 0
KSC1 252026Z 05007KT 22/13 A2989 RMK A01 T02240133  RH  056%=      5-min Rain = 0
KSC1 252027Z 06007KT 22/13 A2989 RMK A01 T02240131  RH  056%=      5-min Rain = 0
KSC1 252028Z 06006KT 22/13 A2989 RMK A01 T02240133  RH  056%=      5-min Rain = 0
KSC1 252029Z 06008KT 22/13 A2989 RMK A01 T02240133  RH  056%=      5-min Rain = 0
KSC1 252030Z 03009KT 23/13 A299 RMK A01 T02250131  RH  055%=      5-min Rain = 0
KSC1 252031Z 03007KT 23/13 A299 RMK A01 T02250131  RH  055%=      5-min Rain = 0
KSC1 252032Z 03007KT 22/13 A299 RMK A01 T02240131  RH  056%=      5-min Rain = 0
KSC1 252033Z 03005KT 22/13 A299 RMK A01 T02240132  RH  056%=      5-min Rain = 0
KSC1 252034Z 03005KT 22/13 A299 RMK A01 T02240132  RH  056%=      5-min Rain = 0
KSC1 252035Z 05007KT 22/13 A299 RMK A01 T02240132  RH  056%=      5-min Rain = 0
KSC1 252036Z 05008KT 22/13 A299 RMK A01 T02240132  RH  056%=      5-min Rain = 0
KSC1 252037Z 03007KT 22/13 A299 RMK A01 T02240132  RH  056%=      5-min Rain = 0
KSC1 252038Z 03007KT 22/13 A299 RMK A01 T02240132  RH  056%=      5-min Rain = 0
KSC1 252039Z 03007KT 22/13 A299 RMK A01 T02240132  RH  056%=      5-min Rain = 0
KSC1 252040Z 02005G10KT 22/13 A299 RMK A01 T02240132  RH  056%=      5-min Rain = 0
KSC1 252041Z 03007KT 22/13 A299 RMK A01 T02240132  RH  056%=      5-min Rain = 0
KSC1 252042Z 05007KT 22/13 A299 RMK A01 T02240132  RH  056%=      5-min Rain = 0
KSC1 252043Z 03006KT 22/13 A299 RMK A01 T02240132  RH  056%=      5-min Rain = 0
KSC1 252044Z 03005KT 22/13 A299 RMK A01 T02240132  RH  056%=      5-min Rain = 0
KSC1 252045Z 04005KT 22/13 A299 RMK A01 T02240133  RH  056%=      5-min Rain = 0
KSC1 252046Z 04004KT 22/13 A299 RMK A01 T02240132  RH  056%=      5-min Rain = 0
KSC1 252047Z 04005KT 22/13 A299 RMK A01 T02240133  RH  056%=      5-min Rain = 0
KSC1 252048Z 04006KT 22/13 A299 RMK A01 T02240132  RH  056%=      5-min Rain = 0
KSC1 252049Z 05006KT 22/13 A299 RMK A01 T02240131  RH  056%=      5-min Rain = 0
KSC1 252050Z 05005KT 22/13 A299 RMK A01 T02240132  RH  056%=      5-min Rain = 0
KSC1 252051Z 04004KT 22/13 A299 RMK A01 T02240132  RH  056%=      5-min Rain = 0
KSC1 252052Z 04004KT 22/13 A299 RMK A01 T02240133  RH  056%=      5-min Rain = 0
KSC1 252053Z 04006KT 22/13 A299 RMK A01 T02240132  RH  056%=      5-min Rain = 0
KSC1 252054Z 04006KT 22/13 A299 RMK A01 T02240131  RH  056%=      5-min Rain = 0
KSC1 252055Z 04006KT 22/13 A299 RMK A01 T02240131  RH  056%=      5-min Rain = 0
KSC1 252056Z 04006KT 22/13 A299 RMK A01 T02240131  RH  056%=      5-min Rain = 0
KSC1 252057Z 03006KT 22/13 A299 RMK A01 T02240132  RH  056%=      5-min Rain = 0
KSC1 252058Z 05007KT 22/13 A299 RMK A01 T02240132  RH  056%=      5-min Rain = 0
KSC1 252059Z 06007KT 22/13 A299 RMK A01 T02240130  RH  055%=      5-min Rain = 0
KSC1 252100Z 05005KT 23/13 A2989 RMK A01 T02250132  RH  056%=      5-min Rain = 0
KSC1 252101Z 05005KT 23/13 A2989 RMK A01 T02250134  RH  056%=      5-min Rain = 0
KSC1 252102Z 06006KT 23/13 A2989 RMK A01 T02260134  RH  056%=      5-min Rain = 0
KSC1 252103Z 05007KT 23/13 A2989 RMK A01 T02270133  RH  055%=      5-min Rain = 0
KSC1 252104Z 06008KT 23/13 A2989 RMK A01 T02270131  RH  055%=      5-min Rain = 0
KSC1 252105Z 05008KT 23/13 A2989 RMK A01 T02260131  RH  055%=      5-min Rain = 0
KSC1 252106Z 05006KT 23/13 A2989 RMK A01 T02260132  RH  055%=      5-min Rain = 0
KSC1 252107Z 04006KT 23/13 A2989 RMK A01 T02260132  RH  055%=      5-min Rain = 0
KSC1 252108Z 04006KT 23/13 A2989 RMK A01 T02260131  RH  055%=      5-min Rain = 0
KSC1 252109Z 05004KT 23/13 A2989 RMK A01 T02270132  RH  055%=      5-min Rain = 0
KSC1 252110Z 04005KT 23/13 A2989 RMK A01 T02270134  RH  056%=      5-min Rain = 0
KSC1 252111Z 06007KT 23/13 A2989 RMK A01 T02270132  RH  055%=      5-min Rain = 0
KSC1 252112Z 05006KT 23/13 A2989 RMK A01 T02270131  RH  055%=      5-min Rain = 0
KSC1 252113Z 06005KT 23/13 A2989 RMK A01 T02270132  RH  055%=      5-min Rain = 0
KSC1 252114Z 05006KT 23/13 A2989 RMK A01 T02270131  RH  055%=      5-min Rain = 0
KSC1 252115Z 05006KT 23/13 A2989 RMK A01 T02260130  RH  054%=      5-min Rain = 0
KSC1 252116Z 06006KT 23/13 A2989 RMK A01 T02260130  RH  054%=      5-min Rain = 0
KSC1 252117Z 07006KT 23/13 A2989 RMK A01 T02270129  RH  054%=      5-min Rain = 0
KSC1 252118Z 06005KT 23/13 A2989 RMK A01 T02270130  RH  054%=      5-min Rain = 0
KSC1 252119Z 07005KT 23/13 A299 RMK A01 T02260130  RH  054%=      5-min Rain = 0
KSC1 252120Z 06005KT 23/13 A299 RMK A01 T02270131  RH  055%=      5-min Rain = 0
KSC1 252121Z 07004KT 23/13 A299 RMK A01 T02270130  RH  054%=      5-min Rain = 0
KSC1 252122Z 07004KT 23/13 A299 RMK A01 T02270129  RH  054%=      5-min Rain = 0
KSC1 252123Z 07003KT 23/13 A299 RMK A01 T02270130  RH  054%=      5-min Rain = 0
KSC1 252124Z 07004KT 23/13 A299 RMK A01 T02270131  RH  055%=      5-min Rain = 0
KSC1 252125Z 07004KT 23/13 A299 RMK A01 T02270130  RH  054%=      5-min Rain = 0
KSC1 252126Z 07003KT 23/13 A299 RMK A01 T02270129  RH  054%=      5-min Rain = 0
KSC1 252127Z 05003KT 23/13 A299 RMK A01 T02270131  RH  055%=      5-min Rain = 0
KSC1 252128Z 07003KT 23/13 A299 RMK A01 T02270130  RH  054%=      5-min Rain = 0
KSC1 252129Z 07002KT 23/13 A299 RMK A01 T02270132  RH  055%=      5-min Rain = 0
KSC1 252130Z 05004KT 23/13 A299 RMK A01 T02280133  RH  055%=      5-min Rain = 0
KSC1 252131Z 04004KT 23/13 A299 RMK A01 T02280133  RH  055%=      5-min Rain = 0
KSC1 252132Z 04005KT 23/13 A299 RMK A01 T02280130  RH  054%=      5-min Rain = 0
KSC1 252133Z 04003KT 23/13 A299 RMK A01 T02280130  RH  054%=      5-min Rain = 0
KSC1 252134Z 03004KT 23/13 A299 RMK A01 T02280131  RH  054%=      5-min Rain = 0
KSC1 252135Z 03005KT 23/13 A299 RMK A01 T02280131  RH  054%=      5-min Rain = 0
KSC1 252136Z 03005KT 23/13 A299 RMK A01 T02280132  RH  055%=      5-min Rain = 0
KSC1 252137Z 04005KT 23/13 A299 RMK A01 T02280129  RH  053%=      5-min Rain = 0
KSC1 252138Z 05004KT 23/13 A299 RMK A01 T02280130  RH  054%=      5-min Rain = 0
KSC1 252139Z 04003KT 23/13 A299 RMK A01 T02280130  RH  054%=      5-min Rain = 0
KSC1 252140Z 05006KT 23/13 A299 RMK A01 T02280130  RH  054%=      5-min Rain = 0
KSC1 252141Z 05005KT 23/13 A299 RMK A01 T02280131  RH  054%=      5-min Rain = 0
KSC1 252142Z 04005KT 23/13 A2989 RMK A01 T02290130  RH  054%=      5-min Rain = 0
KSC1 252143Z 04005KT 23/13 A2989 RMK A01 T02290130  RH  054%=      5-min Rain = 0
KSC1 252144Z 03004KT 23/13 A2989 RMK A01 T02290129  RH  053%=      5-min Rain = 0
KSC1 252145Z 03004KT 23/13 A2989 RMK A01 T02290129  RH  053%=      5-min Rain = 0
KSC1 252146Z 02004KT 23/13 A2989 RMK A01 T02290130  RH  054%=      5-min Rain = 0
KSC1 252147Z 04006KT 23/13 A2989 RMK A01 T02290131  RH  054%=      5-min Rain = 0
KSC1 252148Z 05005KT 23/13 A2989 RMK A01 T02300131  RH  054%=      5-min Rain = 0
KSC1 252149Z 04006KT 23/13 A2989 RMK A01 T02300131  RH  053%=      5-min Rain = 0
KSC1 252150Z 03004KT 23/13 A2989 RMK A01 T02310130  RH  053%=      5-min Rain = 0
KSC1 252151Z 02005KT 23/13 A2989 RMK A01 T02320132  RH  053%=      5-min Rain = 0
KSC1 252152Z 02005KT 23/13 A2989 RMK A01 T02330134  RH  053%=      5-min Rain = 0
KSC1 252153Z 02004KT 24/13 A2989 RMK A01 T02350132  RH  052%=      5-min Rain = 0
KSC1 252154Z 03003KT 24/13 A2989 RMK A01 T02370133  RH  052%=      5-min Rain = 0
KSC1 252155Z 03004KT 24/13 A2989 RMK A01 T02390132  RH  051%=      5-min Rain = 0
KSC1 252156Z 04006KT 24/13 A2989 RMK A01 T02400134  RH  051%=      5-min Rain = 0
KSC1 252157Z 04007KT 24/13 A2989 RMK A01 T02400133  RH  051%=      5-min Rain = 0
KSC1 252158Z 04004KT 24/13 A2989 RMK A01 T02390131  RH  051%=      5-min Rain = 0
KSC1 252159Z 03004KT 24/13 A2989 RMK A01 T02380132  RH  051%=      5-min Rain = 0
KSC1 252200Z 03004KT 24/13 A2989 RMK A01 T02380130  RH  051%=      5-min Rain = 0
KSC1 252201Z 03004KT 24/13 A2989 RMK A01 T02380131  RH  051%=      5-min Rain = 0
KSC1 252202Z 06004KT 24/13 A2989 RMK A01 T02390132  RH  051%=      5-min Rain = 0
KSC1 252203Z 07005KT 24/13 A2989 RMK A01 T02390132  RH  051%=      5-min Rain = 0
KSC1 252204Z 07008KT 24/13 A2989 RMK A01 T02400132  RH  051%=      5-min Rain = 0
KSC1 252205Z 08006KT 24/13 A2989 RMK A01 T02410131  RH  050%=      5-min Rain = 0
KSC1 252206Z 08006KT 24/13 A2989 RMK A01 T02400130  RH  050%=      5-min Rain = 0
KSC1 252207Z 08005KT 24/13 A2989 RMK A01 T02380130  RH  051%=      5-min Rain = 0
KSC1 252208Z 07003KT 24/13 A2989 RMK A01 T02370129  RH  051%=      5-min Rain = 0
KSC1 252209Z 07004KT 24/13 A2989 RMK A01 T02360130  RH  051%=      5-min Rain = 0
KSC1 252210Z 07008KT 24/13 A2989 RMK A01 T02360131  RH  052%=      5-min Rain = 0
KSC1 252211Z 07006KT 24/13 A2989 RMK A01 T02360131  RH  052%=      5-min Rain = 0
KSC1 252212Z 06007KT 24/13 A2989 RMK A01 T02350130  RH  052%=      5-min Rain = 0
KSC1 252213Z 06007KT 23/13 A2989 RMK A01 T02340129  RH  051%=      5-min Rain = 0
KSC1 252214Z 07005KT 23/13 A2989 RMK A01 T02330131  RH  052%=      5-min Rain = 0
KSC1 252215Z 08004KT 23/13 A2989 RMK A01 T02330132  RH  053%=      5-min Rain = 0
KSC1 252216Z 07005KT 23/13 A2989 RMK A01 T02340131  RH  052%=      5-min Rain = 0
KSC1 252217Z 07006KT 23/13 A2989 RMK A01 T02340130  RH  052%=      5-min Rain = 0
KSC1 252218Z 06005KT 23/13 A2989 RMK A01 T02340130  RH  052%=      5-min Rain = 0
KSC1 252219Z 06005KT 23/13 A2989 RMK A01 T02320128  RH  052%=      5-min Rain = 0
KSC1 252220Z 04005KT 23/13 A2989 RMK A01 T02310130  RH  053%=      5-min Rain = 0
KSC1 252221Z 04004KT 23/13 A2989 RMK A01 T02320129  RH  052%=      5-min Rain = 0
KSC1 252222Z 05004KT 23/13 A2989 RMK A01 T02310130  RH  053%=      5-min Rain = 0
KSC1 252223Z 07004KT 23/13 A2989 RMK A01 T02310130  RH  053%=      5-min Rain = 0
KSC1 252224Z 07003KT 23/13 A2989 RMK A01 T02310130  RH  053%=      5-min Rain = 0
KSC1 252225Z 08003KT 23/13 A2989 RMK A01 T02310130  RH  053%=      5-min Rain = 0
KSC1 252226Z 09005KT 23/13 A2989 RMK A01 T02320131  RH  053%=      5-min Rain = 0
KSC1 252227Z 08004KT 23/13 A2989 RMK A01 T02320129  RH  052%=      5-min Rain = 0
KSC1 252228Z 06004KT 23/13 A2989 RMK A01 T02320132  RH  053%=      5-min Rain = 0
KSC1 252229Z 05004KT 23/13 A2989 RMK A01 T02320133  RH  054%=      5-min Rain = 0
KSC1 252230Z 05004KT 23/13 A2989 RMK A01 T02330133  RH  053%=      5-min Rain = 0
KSC1 252231Z 06004KT 23/13 A2989 RMK A01 T02330131  RH  053%=      5-min Rain = 0
KSC1 252232Z 05005KT 23/13 A2989 RMK A01 T02340132  RH  053%=      5-min Rain = 0
KSC1 252233Z 02005KT 23/13 A2989 RMK A01 T02330131  RH  053%=      5-min Rain = 0
KSC1 252234Z 02005KT 23/13 A2989 RMK A01 T02330131  RH  053%=      5-min Rain = 0
KSC1 252235Z 02004KT 23/13 A2989 RMK A01 T02330130  RH  052%=      5-min Rain = 0
KSC1 252236Z 03004KT 23/13 A2989 RMK A01 T02320130  RH  052%=      5-min Rain = 0
KSC1 252237Z 04004KT 23/13 A2989 RMK A01 T02320132  RH  053%=      5-min Rain = 0
KSC1 252238Z 04004KT 23/13 A2989 RMK A01 T02320132  RH  054%=      5-min Rain = 0
KSC1 252239Z 05005KT 23/13 A2989 RMK A01 T02330133  RH  053%=      5-min Rain = 0
KSC1 252240Z 05005KT 23/13 A2989 RMK A01 T02330131  RH  053%=      5-min Rain = 0
KSC1 252241Z 04004KT 23/13 A2989 RMK A01 T02320131  RH  053%=      5-min Rain = 0
KSC1 252242Z 02004KT 23/13 A2989 RMK A01 T02320130  RH  053%=      5-min Rain = 0
KSC1 252243Z 03004KT 23/13 A2989 RMK A01 T02310130  RH  053%=      5-min Rain = 0
KSC1 252244Z 03004KT 23/13 A2989 RMK A01 T02310129  RH  053%=      5-min Rain = 0
KSC1 252245Z 06003KT 23/13 A2989 RMK A01 T02300130  RH  053%=      5-min Rain = 0
KSC1 252246Z 05004KT 23/13 A2989 RMK A01 T02300131  RH  054%=      5-min Rain = 0
KSC1 252247Z 05004KT 23/13 A2989 RMK A01 T02300133  RH  054%=      5-min Rain = 0
KSC1 252248Z 04004KT 23/13 A2989 RMK A01 T02300134  RH  054%=      5-min Rain = 0
KSC1 252249Z 04003KT 23/13 A2989 RMK A01 T02300131  RH  054%=      5-min Rain = 0
KSC1 252250Z 06004KT 23/13 A2989 RMK A01 T02290132  RH  054%=      5-min Rain = 0
KSC1 252251Z 05005KT 23/13 A2989 RMK A01 T02290130  RH  054%=      5-min Rain = 0
KSC1 252252Z 06004KT 23/13 A2989 RMK A01 T02290129  RH  053%=      5-min Rain = 0
KSC1 252253Z 05005KT 23/13 A2989 RMK A01 T02280131  RH  054%=      5-min Rain = 0
KSC1 252254Z 04006KT 23/13 A2989 RMK A01 T02280131  RH  054%=      5-min Rain = 0
KSC1 252255Z 04005KT 23/13 A2989 RMK A01 T02280131  RH  054%=      5-min Rain = 0
KSC1 252256Z 04006KT 23/13 A2989 RMK A01 T02280132  RH  055%=      5-min Rain = 0
KSC1 252257Z 04006KT 23/13 A2989 RMK A01 T02280129  RH  054%=      5-min Rain = 0
KSC1 252258Z 03006KT 23/13 A2989 RMK A01 T02280130  RH  054%=      5-min Rain = 0
KSC1 252259Z 04006KT 23/13 A2989 RMK A01 T02280128  RH  053%=      5-min Rain = 0
KSC1 252300Z 03005KT 23/13 A2989 RMK A01 T02280128  RH  053%=      5-min Rain = 0
KSC1 252301Z 03004KT 23/13 A2989 RMK A01 T02270129  RH  054%=      5-min Rain = 0
KSC1 252302Z 03005KT 23/13 A2989 RMK A01 T02270130  RH  054%=      5-min Rain = 0
KSC1 252303Z 03004KT 23/13 A2989 RMK A01 T02270130  RH  054%=      5-min Rain = 0
KSC1 252304Z 03004KT 23/13 A2989 RMK A01 T02280132  RH  055%=      5-min Rain = 0
KSC1 252305Z 03003KT 23/13 A2989 RMK A01 T02270131  RH  054%=      5-min Rain = 0
KSC1 252306Z 04003KT 23/13 A2989 RMK A01 T02280131  RH  054%=      5-min Rain = 0
KSC1 252307Z 05003KT 23/13 A2989 RMK A01 T02280131  RH  054%=      5-min Rain = 0
KSC1 252308Z 03003KT 23/13 A2989 RMK A01 T02280132  RH  054%=      5-min Rain = 0
KSC1 252309Z 03005KT 23/13 A2989 RMK A01 T02280130  RH  054%=      5-min Rain = 0
KSC1 252310Z 03004KT 23/13 A2989 RMK A01 T02270129  RH  054%=      5-min Rain = 0
KSC1 252311Z 03004KT 23/13 A2989 RMK A01 T02270131  RH  055%=      5-min Rain = 0
KSC1 252312Z 03004KT 23/13 A2989 RMK A01 T02270131  RH  054%=      5-min Rain = 0
KSC1 252313Z 03004KT 23/13 A2989 RMK A01 T02270130  RH  054%=      5-min Rain = 0
KSC1 252314Z 03004KT 23/13 A2989 RMK A01 T02270130  RH  054%=      5-min Rain = 0
KSC1 252315Z 03003KT 23/13 A2989 RMK A01 T02270130  RH  054%=      5-min Rain = 0
KSC1 252316Z 04004KT 23/13 A299 RMK A01 T02270131  RH  055%=      5-min Rain = 0
KSC1 252317Z 04004KT 23/13 A299 RMK A01 T02270129  RH  054%=      5-min Rain = 0
KSC1 252318Z 04006KT 23/13 A299 RMK A01 T02270129  RH  054%=      5-min Rain = 0
KSC1 252319Z 03005KT 23/13 A299 RMK A01 T02270129  RH  054%=      5-min Rain = 0
KSC1 252320Z 04004KT 23/13 A299 RMK A01 T02270128  RH  054%=      5-min Rain = 0
KSC1 252321Z 04004KT 23/13 A299 RMK A01 T02270129  RH  054%=      5-min Rain = 0
KSC1 252322Z 03004KT 23/13 A299 RMK A01 T02270129  RH  054%=      5-min Rain = 0
KSC1 252323Z 02004KT 23/13 A299 RMK A01 T02270129  RH  054%=      5-min Rain = 0
KSC1 252324Z 02003KT 23/13 A299 RMK A01 T02280131  RH  054%=      5-min Rain = 0
KSC1 252325Z 03003KT 23/13 A299 RMK A01 T02280130  RH  054%=      5-min Rain = 0
KSC1 252326Z 02005KT 23/13 A299 RMK A01 T02300130  RH  053%=      5-min Rain = 0
KSC1 252327Z 02004KT 23/13 A299 RMK A01 T02310130  RH  053%=      5-min Rain = 0
KSC1 252328Z 03005KT 23/13 A299 RMK A01 T02330130  RH  052%=      5-min Rain = 0
KSC1 252329Z 05004KT 24/13 A2989 RMK A01 T02350132  RH  052%=      5-min Rain = 0
KSC1 252330Z 05005KT 24/13 A2989 RMK A01 T02370133  RH  052%=      5-min Rain = 0
KSC1 252331Z 04005KT 24/13 A2989 RMK A01 T02390133  RH  051%=      5-min Rain = 0
KSC1 252332Z 04006KT 24/13 A2989 RMK A01 T02390131  RH  051%=      5-min Rain = 0
KSC1 252333Z 04007KT 24/13 A2989 RMK A01 T02390131  RH  051%=      5-min Rain = 0
KSC1 252334Z 04007KT 24/13 A2989 RMK A01 T02370132  RH  052%=      5-min Rain = 0
KSC1 252335Z 04008KT 24/13 A2989 RMK A01 T02370130  RH  051%=      5-min Rain = 0
KSC1 252336Z 05006KT 24/13 A2989 RMK A01 T02360130  RH  052%=      5-min Rain = 0
KSC1 252337Z 05007KT 24/13 A2989 RMK A01 T02350132  RH  052%=      5-min Rain = 0
KSC1 252338Z 06005KT 24/13 A2989 RMK A01 T02350132  RH  052%=      5-min Rain = 0
KSC1 252339Z 07005KT 24/13 A2989 RMK A01 T02350132  RH  052%=      5-min Rain = 0
KSC1 252340Z 07006KT 24/13 A2989 RMK A01 T02360132  RH  052%=      5-min Rain = 0
KSC1 252341Z 07008KT 24/13 A2989 RMK A01 T02360131  RH  052%=      5-min Rain = 0
KSC1 252342Z 07007KT 24/13 A2989 RMK A01 T02350131  RH  052%=      5-min Rain = 0
KSC1 252343Z 08007KT 24/13 A2989 RMK A01 T02350130  RH  052%=      5-min Rain = 0
KSC1 252344Z 07007KT 23/13 A2989 RMK A01 T02340129  RH  052%=      5-min Rain = 0
KSC1 252345Z 07005KT 23/13 A2989 RMK A01 T02330131  RH  052%=      5-min Rain = 0
KSC1 252346Z 08005KT 23/13 A2989 RMK A01 T02330132  RH  053%=      5-min Rain = 0
KSC1 252347Z 07006KT 23/13 A2989 RMK A01 T02340131  RH  052%=      5-min Rain = 0
KSC1 252348Z 07005KT 24/13 A2989 RMK A01 T02350132  RH  052%=      5-min Rain = 0
KSC1 252349Z 08004KT 24/13 A2989 RMK A01 T02350133  RH  053%=      5-min Rain = 0
KSC1 252350Z 07005KT 24/13 A2989 RMK A01 T02360134  RH  053%=      5-min Rain = 0
KSC1 252351Z 06008KT 24/13 A2989 RMK A01 T02360132  RH  052%=      5-min Rain = 0
KSC1 252352Z 06005KT 24/13 A2989 RMK A01 T02360129  RH  051%=      5-min Rain = 0
KSC1 252353Z 05005KT 24/13 A2989 RMK A01 T02350131  RH  052%=      5-min Rain = 0
KSC1 252354Z 04003KT 24/13 A2989 RMK A01 T02350131  RH  052%=      5-min Rain = 0
KSC1 252355Z 03005KT 24/13 A2989 RMK A01 T02360132  RH  052%=      5-min Rain = 0
KSC1 252356Z 02007KT 24/13 A2989 RMK A01 T02370132  RH  052%=      5-min Rain = 0
KSC1 252357Z 03007KT 24/13 A2989 RMK A01 T02360130  RH  051%=      5-min Rain = 0
KSC1 252358Z 03009KT 24/13 A2989 RMK A01 T02350130  RH  052%=      5-min Rain = 0
KSC1 252359Z 02008KT 23/13 A2989 RMK A01 T02330130  RH  052%=      5-min Rain = 0
KSC1 260000Z 02008KT 23/13 A2989 RMK A01 T02330130  RH  052%=      5-min Rain = 0
KSC1 260001Z 03007KT 23/13 A2989 RMK A01 T02330131  RH  053%=      5-min Rain = 0
KSC1 260002Z 05007KT 23/13 A2989 RMK A01 T02330130  RH  052%=      5-min Rain = 0
KSC1 260003Z 04006KT 23/13 A2989 RMK A01 T02330131  RH  053%=      5-min Rain = 0
KSC1 260004Z 04007KT 23/13 A2989 RMK A01 T02330131  RH  053%=      5-min Rain = 0
KSC1 260005Z 02005KT 23/13 A2989 RMK A01 T02330132  RH  053%=      5-min Rain = 0
KSC1 260006Z 04006KT 23/13 A2989 RMK A01 T02330133  RH  053%=      5-min Rain = 0
KSC1 260007Z 04007KT 23/13 A2989 RMK A01 T02320131  RH  053%=      5-min Rain = 0
KSC1 260008Z 04008KT 23/13 A2989 RMK A01 T02310130  RH  053%=      5-min Rain = 0
KSC1 260009Z 04006KT 23/13 A2989 RMK A01 T02300128  RH  053%=      5-min Rain = 0
KSC1 260010Z 03005KT 23/13 A2989 RMK A01 T02290129  RH  053%=      5-min Rain = 0
KSC1 260011Z 01006KT 23/13 A2989 RMK A01 T02290128  RH  053%=      5-min Rain = 0
KSC1 260012Z 02006KT 23/13 A2989 RMK A01 T02300128  RH  053%=      5-min Rain = 0
KSC1 260013Z 02004KT 23/13 A2989 RMK A01 T02310129  RH  053%=      5-min Rain = 0
KSC1 260014Z 03003KT 23/13 A2989 RMK A01 T02310129  RH  053%=      5-min Rain = 0
KSC1 260015Z 03006KT 23/13 A2989 RMK A01 T02320131  RH  053%=      5-min Rain = 0
KSC1 260016Z 03004KT 23/13 A2989 RMK A01 T02320131  RH  053%=      5-min Rain = 0
KSC1 260017Z 03004KT 23/13 A2989 RMK A01 T02320131  RH  053%=      5-min Rain = 0
KSC1 260018Z 04005KT 23/13 A2989 RMK A01 T02320130  RH  052%=      5-min Rain = 0
KSC1 260019Z 04006KT 23/13 A2989 RMK A01 T02320131  RH  053%=      5-min Rain = 0
KSC1 260020Z 05006KT 23/13 A2989 RMK A01 T02320129  RH  052%=      5-min Rain = 0
KSC1 260021Z 04004KT 23/13 A2989 RMK A01 T02320129  RH  052%=      5-min Rain = 0
KSC1 260022Z 05005KT 23/13 A2989 RMK A01 T02310131  RH  054%=      5-min Rain = 0
KSC1 260023Z 04005KT 23/13 A299 RMK A01 T02310131  RH  053%=      5-min Rain = 0
KSC1 260024Z 04005KT 23/13 A299 RMK A01 T02300130  RH  053%=      5-min Rain = 0
KSC1 260025Z 03004KT 23/13 A299 RMK A01 T02300131  RH  054%=      5-min Rain = 0
KSC1 260026Z 03004KT 23/13 A299 RMK A01 T02290132  RH  054%=      5-min Rain = 0
KSC1 260027Z 02006KT 23/13 A299 RMK A01 T02290131  RH  054%=      5-min Rain = 0
KSC1 260028Z 03003KT 23/13 A299 RMK A01 T02290130  RH  053%=      5-min Rain = 0
KSC1 260029Z 02004KT 23/13 A299 RMK A01 T02290131  RH  054%=      5-min Rain = 0
KSC1 260030Z 02006KT 23/13 A299 RMK A01 T02290131  RH  054%=      5-min Rain = 0
KSC1 260031Z 02005KT 23/13 A299 RMK A01 T02290130  RH  054%=      5-min Rain = 0
KSC1 260032Z 03004KT 23/13 A299 RMK A01 T02280129  RH  053%=      5-min Rain = 0
KSC1 260033Z 02004KT 23/13 A299 RMK A01 T02280128  RH  053%=      5-min Rain = 0
KSC1 260034Z 03004KT 23/13 A299 RMK A01 T02280128  RH  053%=      5-min Rain = 0
KSC1 260035Z 03004KT 23/13 A299 RMK A01 T02280128  RH  053%=      5-min Rain = 0
KSC1 260036Z 03004KT 23/13 A299 RMK A01 T02280129  RH  054%=      5-min Rain = 0
KSC1 260037Z 02003KT 23/13 A299 RMK A01 T02270130  RH  054%=      5-min Rain = 0
KSC1 260038Z 03003KT 23/13 A299 RMK A01 T02270129  RH  054%=      5-min Rain = 0
KSC1 260039Z 02004KT 23/13 A299 RMK A01 T02270129  RH  054%=      5-min Rain = 0
KSC1 260040Z 02003KT 23/13 A299 RMK A01 T02260129  RH  054%=      5-min Rain = 0
KSC1 260041Z 01003KT 23/13 A299 RMK A01 T02270128  RH  054%=      5-min Rain = 0
KSC1 260042Z 02003KT 23/13 A299 RMK A01 T02260128  RH  054%=      5-min Rain = 0
KSC1 260043Z 03003KT 23/13 A299 RMK A01 T02260128  RH  054%=      5-min Rain = 0
KSC1 260044Z 03004KT 23/13 A299 RMK A01 T02260128  RH  054%=      5-min Rain = 0
KSC1 260045Z 02005KT 23/13 A299 RMK A01 T02260127  RH  054%=      5-min Rain = 0
KSC1 260046Z 02004KT 23/13 A299 RMK A01 T02260128  RH  054%=      5-min Rain = 0
KSC1 260047Z 02003KT 23/13 A299 RMK A01 T02260128  RH  054%=      5-min Rain = 0
KSC1 260048Z 01004KT 23/13 A299 RMK A01 T02260129  RH  054%=      5-min Rain = 0
KSC1 260049Z 36003KT 23/13 A299 RMK A01 T02260130  RH  054%=      5-min Rain = 0
KSC1 260050Z 01003KT 23/13 A2991 RMK A01 T02250130  RH  055%=      5-min Rain = 0
KSC1 260051Z 01002KT 23/13 A2991 RMK A01 T02260131  RH  055%=      5-min Rain = 0
KSC1 260052Z 02003KT 23/13 A2991 RMK A01 T02250131  RH  055%=      5-min Rain = 0
KSC1 260053Z 03004KT 23/13 A2991 RMK A01 T02250131  RH  055%=      5-min Rain = 0
KSC1 260054Z 04003KT 22/13 A2991 RMK A01 T02240129  RH  055%=      5-min Rain = 0
KSC1 260055Z 01003KT 22/13 A2991 RMK A01 T02240130  RH  055%=      5-min Rain = 0
KSC1 260056Z 02003KT 22/13 A2991 RMK A01 T02240131  RH  055%=      5-min Rain = 0
KSC1 260057Z 02002KT 22/13 A2991 RMK A01 T02240130  RH  056%=      5-min Rain = 0
KSC1 260058Z 01002KT 22/13 A2991 RMK A01 T02240132  RH  056%=      5-min Rain = 0
KSC1 260059Z 02003KT 22/13 A2991 RMK A01 T02230132  RH  056%=      5-min Rain = 0
KSC1 260100Z 02003KT 22/13 A2991 RMK A01 T02230129  RH  055%=      5-min Rain = 0
KSC1 260101Z 02003KT 22/13 A2991 RMK A01 T02230129  RH  055%=      5-min Rain = 0
KSC1 260102Z 02004KT 22/13 A2991 RMK A01 T02230130  RH  056%=      5-min Rain = 0
KSC1 260103Z 03003KT 22/13 A2991 RMK A01 T02220130  RH  056%=      5-min Rain = 0
KSC1 260104Z 03003KT 22/13 A2991 RMK A01 T02220130  RH  056%=      5-min Rain = 0
KSC1 260105Z 03003KT 22/13 A2991 RMK A01 T02220130  RH  056%=      5-min Rain = 0
KSC1 260106Z 03003KT 22/13 A2991 RMK A01 T02210131  RH  056%=      5-min Rain = 0
KSC1 260107Z 03004KT 22/13 A2991 RMK A01 T02210131  RH  057%=      5-min Rain = 0
KSC1 260108Z 03003KT 22/13 A2991 RMK A01 T02200131  RH  057%=      5-min Rain = 0
KSC1 260109Z 04003KT 22/13 A2991 RMK A01 T02200132  RH  057%=      5-min Rain = 0
KSC1 260110Z 04003KT 22/13 A2991 RMK A01 T02200132  RH  057%=      5-min Rain = 0
KSC1 260111Z 04002KT 22/13 A2991 RMK A01 T02190133  RH  058%=      5-min Rain = 0
KSC1 260112Z 04003KT 22/13 A2991 RMK A01 T02190134  RH  058%=      5-min Rain = 0
KSC1 260113Z 04003KT 22/13 A2991 RMK A01 T02180133  RH  058%=      5-min Rain = 0
KSC1 260114Z 03003KT 22/13 A2991 RMK A01 T02180133  RH  059%=      5-min Rain = 0
KSC1 260115Z 03003KT 22/13 A2991 RMK A01 T02170132  RH  058%=      5-min Rain = 0
KSC1 260116Z 03003KT 22/13 A2992 RMK A01 T02170132  RH  058%=      5-min Rain = 0
KSC1 260117Z 02003KT 22/13 A2992 RMK A01 T02170132  RH  058%=      5-min Rain = 0
KSC1 260118Z 02003KT 22/13 A2992 RMK A01 T02170133  RH  059%=      5-min Rain = 0
KSC1 260119Z 01003KT 22/13 A2992 RMK A01 T02170133  RH  059%=      5-min Rain = 0
KSC1 260120Z 01003KT 22/13 A2992 RMK A01 T02160132  RH  059%=      5-min Rain = 0
KSC1 260121Z 01003KT 22/13 A2992 RMK A01 T02160133  RH  059%=      5-min Rain = 0
KSC1 260122Z 01003KT 22/13 A2992 RMK A01 T02150133  RH  059%=      5-min Rain = 0
KSC1 260123Z 02002KT 22/13 A2992 RMK A01 T02150132  RH  059%=      5-min Rain = 0
KSC1 260124Z 02002KT 21/13 A2992 RMK A01 T02140132  RH  059%=      5-min Rain = 0
KSC1 260125Z 02002KT 21/13 A2992 RMK A01 T02140132  RH  060%=      5-min Rain = 0
KSC1 260126Z 02002KT 21/13 A2992 RMK A01 T02130132  RH  060%=      5-min Rain = 0
KSC1 260127Z 02002KT 21/13 A2992 RMK A01 T02130132  RH  060%=      5-min Rain = 0
KSC1 260128Z 02002KT 21/13 A2992 RMK A01 T02130133  RH  060%=      5-min Rain = 0
KSC1 260129Z 02002KT 21/13 A2992 RMK A01 T02130133  RH  060%=      5-min Rain = 0
KSC1 260130Z 02002KT 21/13 A2993 RMK A01 T02120133  RH  061%=      5-min Rain = 0
KSC1 260131Z 02002KT 21/13 A2993 RMK A01 T02120134  RH  061%=      5-min Rain = 0
KSC1 260132Z 02002KT 21/14 A2993 RMK A01 T02110135  RH  062%=      5-min Rain = 0
KSC1 260133Z 02002KT 21/14 A2993 RMK A01 T02100135  RH  062%=      5-min Rain = 0
KSC1 260134Z 02002KT 21/13 A2993 RMK A01 T02100134  RH  062%=      5-min Rain = 0
KSC1 260135Z 03002KT 21/14 A2993 RMK A01 T02090135  RH  062%=      5-min Rain = 0
KSC1 260136Z 03002KT 21/14 A2993 RMK A01 T02090135  RH  062%=      5-min Rain = 0
KSC1 260137Z 03002KT 21/13 A2993 RMK A01 T02080134  RH  063%=      5-min Rain = 0
KSC1 260138Z 03002KT 21/14 A2993 RMK A01 T02070135  RH  063%=      5-min Rain = 0
KSC1 260139Z 03002KT 21/14 A2993 RMK A01 T02060135  RH  064%=      5-min Rain = 0
KSC1 260140Z 03003KT 21/14 A2993 RMK A01 T02060137  RH  064%=      5-min Rain = 0
KSC1 260141Z 03002KT 21/14 A2993 RMK A01 T02050136  RH  065%=      5-min Rain = 0
KSC1 260142Z 04003KT 20/14 A2993 RMK A01 T02040135  RH  065%=      5-min Rain = 0
KSC1 260143Z 04003KT 20/14 A2993 RMK A01 T02040137  RH  066%=      5-min Rain = 0
KSC1 260144Z 04003KT 20/14 A2993 RMK A01 T02030136  RH  066%=      5-min Rain = 0
KSC1 260145Z 04003KT 20/14 A2993 RMK A01 T02020137  RH  066%=      5-min Rain = 0
KSC1 260146Z 04003KT 20/14 A2993 RMK A01 T02010136  RH  066%=      5-min Rain = 0
KSC1 260147Z 04003KT 20/14 A2993 RMK A01 T02010141  RH  069%=      5-min Rain = 0
KSC1 260148Z 04004KT 20/14 A2993 RMK A01 T02000143  RH  070%=      5-min Rain = 0
KSC1 260149Z 04004KT 20/14 A2993 RMK A01 T01990142  RH  070%=      5-min Rain = 0
KSC1 260150Z 03004KT 20/14 A2993 RMK A01 T01980139  RH  069%=      5-min Rain = 0
KSC1 260151Z 02004KT 20/14 A2993 RMK A01 T01980137  RH  068%=      5-min Rain = 0
KSC1 260152Z 02004KT 20/14 A2993 RMK A01 T01980136  RH  067%=      5-min Rain = 0
KSC1 260153Z 01004KT 20/14 A2993 RMK A01 T01980135  RH  067%=      5-min Rain = 0
KSC1 260154Z 01004KT 20/14 A2993 RMK A01 T01980135  RH  067%=      5-min Rain = 0
KSC1 260155Z 01004KT 20/14 A2993 RMK A01 T01980136  RH  067%=      5-min Rain = 0
KSC1 260156Z 00004KT 20/14 A2994 RMK A01 T01990136  RH  067%=      5-min Rain = 0
KSC1 260157Z 35003KT 20/14 A2994 RMK A01 T01980136  RH  067%=      5-min Rain = 0
KSC1 260158Z 34003KT 20/14 A2994 RMK A01 T01980137  RH  068%=      5-min Rain = 0
KSC1 260159Z 35003KT 20/14 A2994 RMK A01 T01970137  RH  068%=      5-min Rain = 0
KSC1 260200Z 35003KT 20/14 A2994 RMK A01 T01970137  RH  068%=      5-min Rain = 0
KSC1 260201Z 34003KT 20/14 A2994 RMK A01 T01970137  RH  068%=      5-min Rain = 0
KSC1 260202Z 34003KT 20/14 A2994 RMK A01 T01970137  RH  068%=      5-min Rain = 0
KSC1 260203Z 33002KT 20/14 A2994 RMK A01 T01960137  RH  069%=      5-min Rain = 0
KSC1 260204Z 33002KT 20/14 A2994 RMK A01 T01960137  RH  069%=      5-min Rain = 0
KSC1 260205Z 33002KT 20/14 A2994 RMK A01 T01960137  RH  069%=      5-min Rain = 0
KSC1 260206Z 34002KT 20/14 A2994 RMK A01 T01950138  RH  069%=      5-min Rain = 0
KSC1 260207Z 34001KT 20/14 A2994 RMK A01 T01950138  RH  070%=      5-min Rain = 0
KSC1 260208Z 34001KT 19/14 A2994 RMK A01 T01930142  RH  072%=      5-min Rain = 0
KSC1 260209Z 34000KT 19/14 A2994 RMK A01 T01920144  RH  074%=      5-min Rain = 0
KSC1 260210Z 00000KT 19/15 A2995 RMK A01 T01890145  RH  075%=      5-min Rain = 0
KSC1 260211Z 29001KT 19/14 A2995 RMK A01 T01870142  RH  075%=      5-min Rain = 0
KSC1 260212Z 27001KT 19/14 A2995 RMK A01 T01860143  RH  076%=      5-min Rain = 0
KSC1 260213Z 27001KT 18/14 A2995 RMK A01 T01840142  RH  076%=      5-min Rain = 0
KSC1 260214Z 27001KT 18/14 A2995 RMK A01 T01840143  RH  077%=      5-min Rain = 0
KSC1 260215Z 27001KT 18/14 A2995 RMK A01 T01830144  RH  078%=      5-min Rain = 0
KSC1 260216Z 27001KT 18/15 A2995 RMK A01 T01820145  RH  079%=      5-min Rain = 0
KSC1 260217Z 29001KT 18/15 A2995 RMK A01 T01820147  RH  080%=      5-min Rain = 0
KSC1 260218Z 31002KT 18/15 A2996 RMK A01 T01810148  RH  081%=      5-min Rain = 0
KSC1 260219Z 32003KT 18/15 A2996 RMK A01 T01810148  RH  081%=      5-min Rain = 0
KSC1 260220Z 33003KT 18/15 A2996 RMK A01 T01800149  RH  082%=      5-min Rain = 0
KSC1 260221Z 33004KT 18/15 A2996 RMK A01 T01800147  RH  081%=      5-min Rain = 0
KSC1 260222Z 33004KT 18/15 A2996 RMK A01 T01800145  RH  080%=      5-min Rain = 0
KSC1 260223Z 33004KT 18/15 A2996 RMK A01 T01830145  RH  079%=      5-min Rain = 0
KSC1 260224Z 34004KT 19/15 A2996 RMK A01 T01850146  RH  078%=      5-min Rain = 0
KSC1 260225Z 34003KT 19/15 A2996 RMK A01 T01850146  RH  078%=      5-min Rain = 0
KSC1 260226Z 35003KT 19/15 A2996 RMK A01 T01870147  RH  078%=      5-min Rain = 0
KSC1 260227Z 36003KT 19/15 A2996 RMK A01 T01870148  RH  078%=      5-min Rain = 0
KSC1 260228Z 35004KT 19/15 A2996 RMK A01 T01880148  RH  077%=      5-min Rain = 0
KSC1 260229Z 35003KT 19/15 A2996 RMK A01 T01890148  RH  077%=      5-min Rain = 0
KSC1 260230Z 35003KT 19/15 A2996 RMK A01 T01900148  RH  077%=      5-min Rain = 0
KSC1 260231Z 35003KT 19/15 A2997 RMK A01 T01910148  RH  076%=      5-min Rain = 0
KSC1 260232Z 35003KT 19/15 A2997 RMK A01 T01910148  RH  076%=      5-min Rain = 0
KSC1 260233Z 00002KT 19/15 A2996 RMK A01 T01910148  RH  076%=      5-min Rain = 0
KSC1 260234Z 36002KT 19/15 A2996 RMK A01 T01920148  RH  076%=      5-min Rain = 0
KSC1 260235Z 00002KT 19/15 A2996 RMK A01 T01910147  RH  076%=      5-min Rain = 0
KSC1 260236Z 01001KT 19/15 A2996 RMK A01 T01920147  RH  075%=      5-min Rain = 0
KSC1 260237Z 00002KT 19/15 A2997 RMK A01 T01920147  RH  075%=      5-min Rain = 0
KSC1 260238Z 00001KT 19/15 A2997 RMK A01 T01910147  RH  075%=      5-min Rain = 0
KSC1 260239Z 01001KT 19/15 A2997 RMK A01 T01910147  RH  075%=      5-min Rain = 0
KSC1 260240Z 00001KT 19/15 A2997 RMK A01 T01910147  RH  076%=      5-min Rain = 0
KSC1 260241Z 36002KT 19/15 A2996 RMK A01 T01910147  RH  076%=      5-min Rain = 0
KSC1 260242Z 36002KT 19/15 A2996 RMK A01 T01910147  RH  076%=      5-min Rain = 0
KSC1 260243Z 36002KT 19/15 A2996 RMK A01 T01910147  RH  076%=      5-min Rain = 0
KSC1 260244Z 35004KT 19/15 A2996 RMK A01 T01900147  RH  076%=      5-min Rain = 0
KSC1 260245Z 35003KT 19/15 A2996 RMK A01 T01900145  RH  075%=      5-min Rain = 0
KSC1 260246Z 35003KT 19/14 A2996 RMK A01 T01900144  RH  075%=      5-min Rain = 0
KSC1 260247Z 35003KT 19/14 A2996 RMK A01 T01900143  RH  074%=      5-min Rain = 0
KSC1 260248Z 35004KT 19/14 A2996 RMK A01 T01900141  RH  074%=      5-min Rain = 0
KSC1 260249Z 00004KT 19/14 A2996 RMK A01 T01900140  RH  073%=      5-min Rain = 0
KSC1 260250Z 00004KT 19/14 A2996 RMK A01 T01900138  RH  072%=      5-min Rain = 0
KSC1 260251Z 01004KT 19/14 A2996 RMK A01 T01900137  RH  071%=      5-min Rain = 0
KSC1 260252Z 01002KT 19/14 A2996 RMK A01 T01900137  RH  071%=      5-min Rain = 0
KSC1 260253Z 02002KT 19/14 A2996 RMK A01 T01900137  RH  071%=      5-min Rain = 0
KSC1 260254Z 02002KT 19/14 A2996 RMK A01 T01900137  RH  071%=      5-min Rain = 0
KSC1 260255Z 03002KT 19/14 A2996 RMK A01 T01890136  RH  071%=      5-min Rain = 0
KSC1 260256Z 04002KT 19/14 A2996 RMK A01 T01890136  RH  071%=      5-min Rain = 0
KSC1 260257Z 04002KT 19/14 A2996 RMK A01 T01890135  RH  071%=      5-min Rain = 0
KSC1 260258Z 05002KT 19/14 A2996 RMK A01 T01890135  RH  071%=      5-min Rain = 0
KSC1 260259Z 07002KT 19/14 A2996 RMK A01 T01880135  RH  071%=      5-min Rain = 0
KSC1 260300Z 08003KT 19/14 A2996 RMK A01 T01880135  RH  071%=      5-min Rain = 0
KSC1 260301Z 07004KT 19/14 A2996 RMK A01 T01870136  RH  072%=      5-min Rain = 0
KSC1 260302Z 08004KT 19/14 A2996 RMK A01 T01870135  RH  072%=      5-min Rain = 0
KSC1 260303Z 09004KT 19/14 A2996 RMK A01 T01860136  RH  072%=      5-min Rain = 0
KSC1 260304Z 09005KT 19/14 A2996 RMK A01 T01860136  RH  073%=      5-min Rain = 0
KSC1 260305Z 09005KT 19/14 A2996 RMK A01 T01850137  RH  073%=      5-min Rain = 0
KSC1 260306Z 09005KT 19/14 A2996 RMK A01 T01850136  RH  073%=      5-min Rain = 0
KSC1 260307Z 09005KT 19/14 A2995 RMK A01 T01850137  RH  074%=      5-min Rain = 0
KSC1 260308Z 09005KT 18/14 A2995 RMK A01 T01840135  RH  073%=      5-min Rain = 0
KSC1 260309Z 10004KT 19/14 A2995 RMK A01 T01850136  RH  073%=      5-min Rain = 0
KSC1 260310Z 10005KT 19/14 A2995 RMK A01 T01850136  RH  073%=      5-min Rain = 0
KSC1 260311Z 10004KT 19/14 A2995 RMK A01 T01850136  RH  073%=      5-min Rain = 0
KSC1 260312Z 09003KT 18/14 A2996 RMK A01 T01840137  RH  074%=      5-min Rain = 0
KSC1 260313Z 09004KT 18/14 A2996 RMK A01 T01830136  RH  074%=      5-min Rain = 0
KSC1 260314Z 10004KT 18/14 A2996 RMK A01 T01830136  RH  074%=      5-min Rain = 0
KSC1 260315Z 10003KT 18/14 A2996 RMK A01 T01830137  RH  074%=      5-min Rain = 0
KSC1 260316Z 10003KT 18/14 A2996 RMK A01 T01820137  RH  075%=      5-min Rain = 0
KSC1 260317Z 09003KT 18/14 A2996 RMK A01 T01820137  RH  075%=      5-min Rain = 0
KSC1 260318Z 09003KT 18/14 A2996 RMK A01 T01820137  RH  075%=      5-min Rain = 0
KSC1 260319Z 08003KT 18/14 A2996 RMK A01 T01810136  RH  075%=      5-min Rain = 0
KSC1 260320Z 07004KT 18/14 A2996 RMK A01 T01810136  RH  075%=      5-min Rain = 0
KSC1 260321Z 07004KT 18/14 A2996 RMK A01 T01810136  RH  075%=      5-min Rain = 0
KSC1 260322Z 08003KT 18/14 A2996 RMK A01 T01820136  RH  075%=      5-min Rain = 0
KSC1 260323Z 08003KT 18/14 A2997 RMK A01 T01820136  RH  075%=      5-min Rain = 0
KSC1 260324Z 08003KT 18/14 A2997 RMK A01 T01820136  RH  074%=      5-min Rain = 0
KSC1 260325Z 07003KT 18/14 A2997 RMK A01 T01820136  RH  074%=      5-min Rain = 0
KSC1 260326Z 07002KT 18/14 A2997 RMK A01 T01820136  RH  075%=      5-min Rain = 0
KSC1 260327Z 07003KT 18/14 A2997 RMK A01 T01820136  RH  075%=      5-min Rain = 0
KSC1 260328Z 07002KT 18/14 A2998 RMK A01 T01820136  RH  075%=      5-min Rain = 0
KSC1 260329Z 07001KT 18/14 A2998 RMK A01 T01820137  RH  075%=      5-min Rain = 0
KSC1 260330Z 07000KT 18/14 A2998 RMK A01 T01810137  RH  075%=      5-min Rain = 0
KSC1 260331Z 05000KT 18/14 A2998 RMK A01 T01800138  RH  076%=      5-min Rain = 0
KSC1 260332Z 32001KT 18/14 A2998 RMK A01 T01780137  RH  077%=      5-min Rain = 0
KSC1 260333Z 31003KT 18/14 A2998 RMK A01 T01760137  RH  078%=      5-min Rain = 0
KSC1 260334Z 30005KT 18/14 A2999 RMK A01 T01760137  RH  078%=      5-min Rain = 0
KSC1 260335Z 30005KT 18/14 A2999 RMK A01 T01750137  RH  078%=      5-min Rain = 0
KSC1 260336Z 30005KT 18/14 A2999 RMK A01 T01750138  RH  078%=      5-min Rain = 0
KSC1 260337Z 31005KT 18/14 A2999 RMK A01 T01750138  RH  079%=      5-min Rain = 0
KSC1 260338Z 31004KT 18/14 A2999 RMK A01 T01750137  RH  078%=      5-min Rain = 0
KSC1 260339Z 31004KT 18/14 A2999 RMK A01 T01760137  RH  078%=      5-min Rain = 0
KSC1 260340Z 30004KT 18/14 A2999 RMK A01 T01760137  RH  078%=      5-min Rain = 0
KSC1 260341Z 29004KT 18/14 A2999 RMK A01 T01770137  RH  078%=      5-min Rain = 0
KSC1 260342Z 29004KT 18/14 A2999 RMK A01 T01770137  RH  078%=      5-min Rain = 0
KSC1 260343Z 29005KT 18/14 A30 RMK A01 T01770137  RH  078%=      5-min Rain = 0
KSC1 260344Z 28005KT 18/14 A30 RMK A01 T01770138  RH  078%=      5-min Rain = 0
KSC1 260345Z 28005KT 18/14 A30 RMK A01 T01760138  RH  078%=      5-min Rain = 0
KSC1 260346Z 27005KT 18/14 A30 RMK A01 T01760138  RH  079%=      5-min Rain = 0
KSC1 260347Z 27005KT 18/14 A30 RMK A01 T01750139  RH  080%=      5-min Rain = 0
KSC1 260348Z 28006KT 17/14 A30 RMK A01 T01740140  RH  080%=      5-min Rain = 0
KSC1 260349Z 28005KT 17/14 A30 RMK A01 T01730141  RH  081%=      5-min Rain = 0
KSC1 260350Z 28006KT 17/14 A30 RMK A01 T01730141  RH  082%=      5-min Rain = 0
KSC1 260351Z 28006KT 17/14 A30 RMK A01 T01730142  RH  082%=      5-min Rain = 0
KSC1 260352Z 29005KT 17/14 A30 RMK A01 T01720142  RH  082%=      5-min Rain = 0
KSC1 260353Z 28004KT 17/14 A30 RMK A01 T01720142  RH  082%=      5-min Rain = 0
KSC1 260354Z 28004KT 17/14 A30 RMK A01 T01730142  RH  082%=      5-min Rain = 0
KSC1 260355Z 28004KT 17/14 A30 RMK A01 T01730141  RH  082%=      5-min Rain = 0
KSC1 260356Z 27003KT 17/14 A30 RMK A01 T01730142  RH  082%=      5-min Rain = 0
KSC1 260357Z 27003KT 17/14 A30 RMK A01 T01730142  RH  082%=      5-min Rain = 0
KSC1 260358Z 27003KT 17/14 A30 RMK A01 T01730142  RH  082%=      5-min Rain = 0
KSC1 260359Z 27003KT 17/14 A30 RMK A01 T01740141  RH  081%=      5-min Rain = 0
KSC1 260400Z 27002KT 17/14 A30 RMK A01 T01740141  RH  081%=      5-min Rain = 0
KSC1 260401Z 27002KT 17/14 A30 RMK A01 T01740141  RH  081%=      5-min Rain = 0
KSC1 260402Z 27003KT 17/14 A30 RMK A01 T01740141  RH  081%=      5-min Rain = 0
KSC1 260403Z 27002KT 17/14 A30 RMK A01 T01740140  RH  081%=      5-min Rain = 0
KSC1 260404Z 26002KT 17/14 A30 RMK A01 T01740140  RH  080%=      5-min Rain = 0
KSC1 260405Z 26002KT 17/14 A30 RMK A01 T01740140  RH  080%=      5-min Rain = 0
KSC1 260406Z 26001KT 17/14 A30 RMK A01 T01740140  RH  080%=      5-min Rain = 0
KSC1 260407Z 25002KT 17/14 A30 RMK A01 T01740140  RH  080%=      5-min Rain = 0
KSC1 260408Z 24002KT 17/14 A30 RMK A01 T01740140  RH  080%=      5-min Rain = 0
KSC1 260409Z 25002KT 17/14 A30 RMK A01 T01740140  RH  080%=      5-min Rain = 0
KSC1 260410Z 26002KT 17/14 A30 RMK A01 T01740140  RH  080%=      5-min Rain = 0
KSC1 260411Z 26003KT 17/14 A30 RMK A01 T01730140  RH  081%=      5-min Rain = 0
KSC1 260412Z 26003KT 17/14 A3001 RMK A01 T01720141  RH  082%=      5-min Rain = 0
KSC1 260413Z 27003KT 17/14 A3001 RMK A01 T01700142  RH  083%=      5-min Rain = 0
KSC1 260414Z 27004KT 17/14 A3001 RMK A01 T01690141  RH  083%=      5-min Rain = 0
KSC1 260415Z 27003KT 17/14 A3001 RMK A01 T01690142  RH  084%=      5-min Rain = 0
KSC1 260416Z 27003KT 17/14 A3001 RMK A01 T01690141  RH  084%=      5-min Rain = 0
KSC1 260417Z 28002KT 17/14 A3001 RMK A01 T01690141  RH  084%=      5-min Rain = 0
KSC1 260418Z 28003KT 17/14 A3001 RMK A01 T01690142  RH  084%=      5-min Rain = 0
KSC1 260419Z 28003KT 17/14 A3001 RMK A01 T01690142  RH  084%=      5-min Rain = 0
KSC1 260420Z 28004KT 17/14 A3001 RMK A01 T01680141  RH  084%=      5-min Rain = 0
KSC1 260421Z 28005KT 17/14 A3001 RMK A01 T01690142  RH  084%=      5-min Rain = 0
KSC1 260422Z 29005KT 17/14 A3001 RMK A01 T01690143  RH  085%=      5-min Rain = 0
KSC1 260423Z 28004KT 17/14 A3001 RMK A01 T01690142  RH  084%=      5-min Rain = 0
KSC1 260424Z 29004KT 17/14 A3001 RMK A01 T01690143  RH  084%=      5-min Rain = 0
KSC1 260425Z 29004KT 17/14 A3001 RMK A01 T01690143  RH  084%=      5-min Rain = 0
KSC1 260426Z 29003KT 17/14 A3001 RMK A01 T01690143  RH  085%=      5-min Rain = 0
KSC1 260427Z 30003KT 17/14 A3001 RMK A01 T01700144  RH  085%=      5-min Rain = 0
KSC1 260428Z 32003KT 17/14 A3001 RMK A01 T01700143  RH  084%=      5-min Rain = 0
KSC1 260429Z 33003KT 17/14 A3001 RMK A01 T01700142  RH  084%=      5-min Rain = 0
KSC1 260430Z 31003KT 17/14 A3001 RMK A01 T01700142  RH  083%=      5-min Rain = 0
KSC1 260431Z 30003KT 17/14 A3001 RMK A01 T01710142  RH  083%=      5-min Rain = 0
KSC1 260432Z 30003KT 17/14 A3001 RMK A01 T01710141  RH  082%=      5-min Rain = 0
KSC1 260433Z 30003KT 17/14 A3001 RMK A01 T01720142  RH  082%=      5-min Rain = 0
KSC1 260434Z 30003KT 17/14 A3001 RMK A01 T01720141  RH  082%=      5-min Rain = 0
KSC1 260435Z 31002KT 17/14 A3001 RMK A01 T01720141  RH  082%=      5-min Rain = 0
KSC1 260436Z 32002KT 17/14 A3001 RMK A01 T01720141  RH  082%=      5-min Rain = 0
KSC1 260437Z 32002KT 17/14 A3001 RMK A01 T01720141  RH  082%=      5-min Rain = 0
KSC1 260438Z 33002KT 17/14 A3001 RMK A01 T01720140  RH  082%=      5-min Rain = 0
KSC1 260439Z 33001KT 17/14 A3001 RMK A01 T01720141  RH  082%=      5-min Rain = 0
KSC1 260440Z 32002KT 17/14 A3001 RMK A01 T01720141  RH  082%=      5-min Rain = 0
KSC1 260441Z 32002KT 17/14 A3001 RMK A01 T01720141  RH  082%=      5-min Rain = 0
KSC1 260442Z 32002KT 17/14 A3001 RMK A01 T01720141  RH  082%=      5-min Rain = 0
KSC1 260443Z 32002KT 17/14 A3001 RMK A01 T01720141  RH  082%=      5-min Rain = 0
KSC1 260444Z 32002KT 17/14 A3001 RMK A01 T01720141  RH  082%=      5-min Rain = 0
KSC1 260445Z 33001KT 17/14 A3001 RMK A01 T01720141  RH  082%=      5-min Rain = 0
KSC1 260446Z 33002KT 17/14 A3001 RMK A01 T01710141  RH  082%=      5-min Rain = 0
KSC1 260447Z 32002KT 17/14 A3001 RMK A01 T01710141  RH  083%=      5-min Rain = 0
KSC1 260448Z 32002KT 17/14 A3001 RMK A01 T01700142  RH  083%=      5-min Rain = 0
KSC1 260449Z 32002KT 17/14 A3001 RMK A01 T01690142  RH  084%=      5-min Rain = 0
KSC1 260450Z 31001KT 17/14 A3001 RMK A01 T01680142  RH  084%=      5-min Rain = 0
KSC1 260451Z 31001KT 17/14 A3001 RMK A01 T01680142  RH  084%=      5-min Rain = 0
KSC1 260452Z 31001KT 17/14 A3001 RMK A01 T01680142  RH  084%=      5-min Rain = 0
KSC1 260453Z 30001KT 17/14 A3001 RMK A01 T01680142  RH  085%=      5-min Rain = 0
KSC1 260454Z 30001KT 17/14 A3001 RMK A01 T01670142  RH  085%=      5-min Rain = 0
KSC1 260455Z 31001KT 17/14 A3001 RMK A01 T01670142  RH  085%=      5-min Rain = 0
KSC1 260456Z 30001KT 17/15 A3001 RMK A01 T01660145  RH  087%=      5-min Rain = 0
KSC1 260457Z 30001KT 17/15 A3001 RMK A01 T01660147  RH  089%=      5-min Rain = 0
KSC1 260458Z 32001KT 17/15 A3001 RMK A01 T01650148  RH  090%=      5-min Rain = 0
KSC1 260459Z 31001KT 16/15 A3001 RMK A01 T01640147  RH  090%=      5-min Rain = 0

Page generated in 0.0699 seconds.